     2.10           OBSERVATION DATA    G (GPS)             RINEX VERSION / TYPE
teqc 2006Apr13 CORS-ADM Account 20060628 05:04:02UTC        PGM / RUN BY / DATE
Solaris 5.9|UltraSparc IIi|cc -xarch=v9 SC5.5|=+-|*Sparc    COMMENT
teqc 2006Apr13 CORS/NGS/NOAA 20060628 05:04:01UTC           COMMENT
BIT 2 OF LLI FLAGS DATA COLLECTED UNDER A/S CONDITION       COMMENT
cnmr                                                        MARKER NAME
50512M001                                                   MARKER NUMBER
Peter Paul Camacho Commonwealth of the Northern Mariana Isl OBSERVER / AGENCY
0220233361 TRIMBLE 4700 7.29                                REC # / TYPE / VERS
0220238086 TRM33429.20+GP UNAV                              ANT # / TYPE
 -5087756.9960  3465027.2461  1664652.3620                  APPROX POSITION XYZ
        0.0000        0.0000        0.0000                  ANTENNA: DELTA H/E/N
     1     1                                                WAVELENGTH FACT L1/2
     7    C1    L1    L2    P1    P2    D1    D2            # / TYPES OF OBSERV
    30.0000                                                 INTERVAL
SNR is mapped to RINEX snr flag value [0-9]                 COMMENT
L1 & L2: min(max(int(snr_dBHz/6), 0), 9)                    COMMENT
Forced Modulo Decimation to 30 seconds                      COMMENT
  2006     6    28     4     0    0.0000000     GPS         TIME OF FIRST OBS
                                                            END OF HEADER
 06  6 28  4  0  0.0000000  0  9G15G18G29G26G21G10G 5G 9G30
  23311629.9864   -6609793.77647  -5137604.60144                  23311629.4474
      1493.2234
  22786216.4894  -12825312.93447  -9984513.45845                  22786214.3994
      3408.4724
  22969869.8744  -11567982.88347  -9442263.92045                  22969870.4064
      -132.0614
  22694725.4834  -13267409.36447 -10656779.11846                  22694725.2554
      -431.1524
  22368979.2974  -14632653.77748 -11394869.05846                  22368976.7504
       281.9684
  23030820.7164  -13409624.44547 -11777339.78045                  23030820.3604
     -2317.1634
  21476725.3324  -19605546.84848 -15270546.16346                  21476723.1164
      2928.0084
  20534098.5054  -27462126.37748 -21378349.59047                  20534096.4054
      -604.2434
  24204838.7954   -4468255.69647  -3467319.49444                  24204837.9244
      3823.9164
 06  6 28  4  0 30.0000000  0  9G15G18G29G26G21G10G 5G 9G30
  23303152.8614   -6654342.77747  -5172318.11344                  23303150.8164
      1476.7484
  22766772.6984  -12927490.31247 -10064132.14846                  22766770.8694
      3403.4034
  22970622.0474  -11564027.35147  -9439181.74845                  22970621.8904
      -131.5824
  22697186.0614  -13254476.03247 -10646701.25445                  22697186.6994
      -431.0014
  22367415.3874  -14640871.33448 -11401272.35046                  22367413.2824
       265.9864
  23044079.2654  -13339950.19047 -11723048.19246                  23044079.6624
     -2327.6814
  21460040.8884  -19693222.98748 -15338865.21146                  21460039.0964
      2917.1344
  20537583.3164  -27443813.61648 -21364079.90847                  20537580.8414
      -616.5484
  24183008.2614   -4582979.13547  -3556714.30944                  24183007.7204
      3824.4004
 06  6 28  4  1  0.0000000  0  9G15G18G29G26G21G10G 5G 9G30
  23294769.3184   -6698395.86647  -5206645.21044                  23294768.7024
      1460.3574
  22747358.8244  -13029512.34647 -10143629.81246                  22747356.9804
      3398.2864
  22971372.1264  -11560084.73247  -9436109.61545                  22971372.5244
      -131.1134
  22699646.4104  -13241546.44147 -10636626.31045                  22699646.3374
      -430.7724
  22365943.3824  -14648607.32548 -11407300.41445                  22365940.6324
       249.9614
  23057397.6954  -13269960.26748 -11668510.63845                  23057397.6264
     -2338.0864
  21443419.4014  -19780570.30348 -15406928.03846                  21443418.2054
      2906.2064
  20541138.1454  -27425133.21548 -21349523.77447                  20541135.8924
      -628.5944
  24161173.3424   -4697718.11647  -3646121.18644                  24161173.1774
      3825.0444
 06  6 28  4  1 30.0000000  0  9G15G18G29G26G21G10G 5G 9G30
  23286479.9384   -6741957.48346  -5240589.34744                  23286478.9274
      1444.0674
  22727973.9754  -13131380.75947 -10223007.76646                  22727971.6494
      3393.1004
  22972119.8224  -11556158.40447  -9433050.19345                  22972120.1064
      -130.5184
  22702105.5514  -13228624.34747 -10626557.20645                  22702106.1704
      -430.6014
  22364561.8784  -14655868.14148 -11412958.21745                  22364559.4634
       234.2094
  23070775.6404  -13199661.21748 -11613732.18745                  23070775.0664
     -2348.3064
  21426860.3054  -19867590.61248 -15474736.05646                  21426858.4784
      2895.3174
  20544761.9264  -27406092.20048 -21334686.62747                  20544758.9854
      -640.5624
  24139335.3024   -4812474.85447  -3735541.95544                  24139334.7024
      3825.6254
 06  6 28  4  2  0.0000000  0  9G15G18G29G26G21G10G 5G 9G30
  23278284.9654   -6785020.98647  -5274145.32044                  23278284.6974
      1427.3584
  22708619.5034  -13233087.07147 -10302259.40646                  22708617.6204
      3387.6124
  22972865.4034  -11552240.80547  -9429997.56745                  22972866.2134
      -130.2204
  22704564.6964  -13215702.81048 -10616488.50645                  22704564.7904
      -430.4744
  22363272.4664  -14662648.19548 -11418241.37845                  22363269.1454
       218.2574
  23084212.4784  -13129048.22447 -11558709.09045                  23084212.4574
     -2358.7304
  21410364.7814  -19954274.80948 -15542282.15246                  21410362.8234
      2884.0334
  20548454.4344  -27386686.39948 -21319565.22547                  20548452.3314
      -652.6814
  24117496.2954   -4927240.80747  -3824969.85844                  24117495.5034
      3825.8064
 06  6 28  4  2 30.0000000  0  9G15G18G29G26G21G10G 5G 9G30
  23270184.9494   -6827589.09747  -5307315.29944                  23270184.0464
      1410.9624
  22689297.1414  -13334631.05747 -10381384.55146                  22689294.2514
      3382.2754
  22973608.7694  -11548333.65747  -9426953.06845                  22973609.2494
      -129.8784
  22707022.8514  -13202783.72747 -10606421.73645                  22707023.3114
      -430.3814
  22362071.8634  -14668952.27747 -11423153.66645                  22362069.7504
       202.4224
  23097708.7404  -13058125.47148 -11503444.63945                  23097708.7954
     -2368.9994
  21393933.1194  -20040622.72848 -15609566.22846                  21393931.4234
      2872.8374
  20552215.8354  -27366921.17248 -21304163.76847                  20552213.3454
      -664.5654
  24095655.3684   -5042015.57547  -3914404.64444                  24095654.5814
      3826.0994
 06  6 28  4  3  0.0000000  0  9G15G18G29G26G21G10G 5G 9G30
  23262177.9844   -6869660.45847  -5340098.18144                  23262177.9284
      1394.2484
  22670004.8644  -13436008.81647 -10460380.19046                  22670003.3134
      3376.5874
  22974350.9624  -11544434.41547  -9423914.74745                  22974350.9744
      -129.7804
  22709482.4764  -13189865.03148 -10596355.28246                  22709481.4964
      -430.5714
  22360962.7984  -14674780.41748 -11427695.08745                  22360960.1744
       186.4654
  23111263.8964  -12986893.63547 -11447939.34645                  23111263.4524
     -2379.4094
  21377566.0444  -20126630.39248 -15676585.16646                  21377564.5014
      2861.3524
  20556045.3464  -27346797.02048 -21288482.62347                  20556042.7764
      -676.6554
  24073813.5744   -5156795.88147  -4003843.76345                  24073813.1084
      3826.2554
 06  6 28  4  3 30.0000000  0  9G15G18G29G26G21G10G 5G 9G30
  23254267.3164   -6911236.53846  -5372495.14944                  23254266.2434
      1377.5194
  22650745.1274  -13537219.16547 -10539245.37746                  22650742.7324
      3370.7624
  22975091.2264  -11540543.33347  -9420882.77545                  22975090.6304
      -129.7174
  22711939.8594  -13176947.67647 -10586289.87945                  22711939.7304
      -430.6644
  22359943.6134  -14680135.84647 -11431868.16145                  22359941.3724
       170.5664
  23124876.9454  -12915355.72047 -11392195.54345                  23124876.6834
     -2389.8734
  21361264.7614  -20212296.63348 -15743338.05846                  21361263.1394
      2849.7074
  20559942.2604  -27326318.23448 -21272525.15247                  20559939.7564
      -688.6284
  24051970.3754   -5271580.83047  -4093286.48345                  24051969.9854
      3826.0504
 06  6 28  4  4  0.0000000  0  9G15G18G29G26G21G10G 5G 9G30
  23246449.8794   -6952316.95947  -5404505.86044                  23246449.2254
      1360.7914
  22631517.7804  -13638258.95247 -10617977.64846                  22631515.5394
      3364.8834
  22975830.7374  -11536659.02547  -9417856.12745                  22975830.2734
      -129.6044
  22714397.6484  -13164030.26747 -10576224.40046                  22714398.7764
      -430.7624
  22359014.4674  -14685019.54048 -11435673.66145                  22359012.2994
       154.7174
  23138548.5654  -12843512.86847 -11336214.13045                  23138547.5494
     -2400.0544
  21345028.2884  -20297618.19948 -15809822.37746                  21345026.3774
      2838.0674
  20563906.4554  -27305486.23948 -21256292.44047                  20563904.4024
      -700.4794
  24030127.2284   -5386367.36847  -4182730.45945                  24030127.7904
      3826.0604
 06  6 28  4  4 30.0000000  0  9G15G18G29G26G21G10G 5G 9G30
  23238727.4524   -6992897.08946  -5436126.76044                  23238726.9984
      1344.1754
  22612324.2204  -13739120.99447 -10696571.41146                  22612322.4324
      3358.9704
  22976569.8644  -11532775.62547  -9414830.12945                  22976570.5734
      -129.5654
  22716856.3234  -13151107.68347 -10566154.86945                  22716857.1994
      -430.9374
  22358175.9384  -14689428.22748 -11439109.02445                  22358173.5694
       138.9794
  23152278.2564  -12771362.18947 -11279992.83245                  23152278.3244
     -2410.2204
  21328858.9524  -20382587.74148 -15876032.38446                  21328857.3204
      2826.3874
  20567938.1534  -27284298.83648 -21239782.78147                  20567935.8884
      -712.1394
  24008285.6164   -5501148.77947  -4272170.39545                  24008284.8434
      3825.8694
 06  6 28  4  5  0.0000000  0  9G15G18G29G26G21G10G 5G 9G30
  23231100.6644   -7032977.66846  -5467358.38944                  23231099.9664
      1327.8914
  22593165.2234  -13839803.37548 -10775025.18646                  22593163.2564
      3353.0814
  22977308.6054  -11528892.73547  -9411804.54145                  22977308.6394
      -129.4294
  22719316.8684  -13138179.88347 -10556081.28745                  22719316.9334
      -430.9624
  22357427.0814  -14693364.33247 -11442176.14145                  22357424.4174
       123.3984
  23166065.8014  -12698906.45447 -11223533.87545                  23166065.7094
     -2420.1374
  21312757.6744  -20467203.48748 -15941966.72446                  21312755.4304
      2814.6924
  20572037.1404  -27262759.64848 -21222999.03647                  20572034.0524
      -723.7114
  23986444.2114   -5615922.97947  -4361604.75145                  23986443.1624
      3825.7274
 06  6 28  4  5 30.0000000  0  9G15G18G29G26G21G10G 5G 9G30
  23223567.9484   -7072558.59046  -5498200.68644                  23223567.9454
      1311.2014
  22574040.4874  -13940303.41447 -10853336.88946                  22574038.6904
      3347.1144
  22978048.3814  -11525008.90547  -9408778.18346                  22978049.8194
      -129.3904
  22721778.4834  -13125245.92447 -10546002.94245                  22721777.9574
      -431.1774
  22356767.4044  -14696829.58848 -11444876.35345                  22356764.6124
       107.9004
  23179912.0174  -12626147.00647 -11166838.22745                  23179912.1084
     -2430.1374
  21296723.6074  -20551462.31248 -16007622.92846                  21296721.4544
      2802.7254
  20576202.2004  -27240870.57148 -21205942.63147                  20576200.0864
      -735.2984
  23964605.3024   -5730687.33847  -4451031.47545                  23964604.8824
      3825.4494
 06  6 28  4  6  0.0000000  0  9G15G18G29G26G21G10G 5G 9G30
  23216128.6404   -7111652.22346  -5528663.26544                  23216128.8824
      1295.0394
  22554949.3114  -14040630.44548 -10931513.75846                  22554947.0494
      3341.2744
  22978785.5684  -11521135.14947  -9405759.70245                  22978785.1224
      -128.9264
  22724238.4974  -13112317.11147 -10535928.53946                  22724240.2544
      -430.9134
  22356194.9284  -14699837.80148 -11447220.40445                  22356192.1714
        92.6714
  23193812.4104  -12553097.92447 -11109916.89645                  23193812.0194
     -2439.7324
  21280755.4304  -20635373.79048 -16073008.45646                  21280753.8934
      2791.1084
  20580431.4554  -27218646.37448 -21188625.08447                  20580429.4904
      -746.3334
  23942765.9554   -5845451.60047  -4540458.07745                  23942765.9334
      3825.4984
 06  6 28  4  6 30.0000000  0  9G15G18G29G26G21G10G 5G 9G30
  23208784.7204   -7150247.52846  -5558737.53844                  23208784.0814
      1278.2724
  22535893.3534  -14140770.57247 -11009545.01346                  22535890.9164
      3334.8784
  22979523.0734  -11517259.33947  -9402739.60845                  22979523.2614
      -129.2634
  22726700.6544  -13099381.62247 -10525848.96645                  22726700.1604
      -431.3184
  22355710.8774  -14702379.29147 -11449200.82045                  22355708.5384
        76.9484
  23207770.5524  -12479749.84447 -11052762.57645                  23207769.8774
     -2449.9664
  21264856.5684  -20718924.24548 -16138112.70346                  21264855.2664
      2778.9604
  20584726.4694  -27196077.57048 -21171039.04247                  20584724.2124
      -757.9494
  23920929.5644   -5960202.73547  -4629874.43645                  23920929.9594
      3824.8394
 06  6 28  4  7  0.0000000  0  9G15G18G29G26G21G10G 5G 9G30
  23201533.9394   -7188348.85346  -5588426.89844                  23201533.5294
      1261.8364
  22516872.7544  -14240725.35648 -11087431.83046                  22516870.1554
      3328.7164
  22980260.9614  -11513384.06647  -9399719.96945                  22980259.0494
      -129.1214
  22729162.1544  -13086442.74647 -10515766.78245                  22729162.0934
      -431.3044
  22355315.4604  -14704459.89448 -11450822.07745                  22355313.0524
        61.7044
  23221784.1494  -12406108.59148 -10995379.80445                  23221783.2484
     -2459.4784
  21249025.8954  -20802114.86448 -16202936.54346                  21249024.6334
      2766.9874
  20589085.2224  -27173171.04348 -21153189.81747                  20589082.9514
      -769.1804
  23899095.6574   -6074941.22347  -4719281.02745                  23899094.8314
      3824.4144
 06  6 28  4  7 30.0000000  0  9G15G18G29G26G21G10G 5G 9G30
  23194379.2334   -7225953.77946  -5617729.47644                  23194377.7914
      1245.2884
  22497888.0564  -14340489.65848 -11165170.23046                  22497885.5344
      3322.2174
  22980998.3794  -11509506.03847  -9396698.20445                  22980997.7884
      -129.4194
  22731625.5404  -13073497.45247 -10505679.58246                  22731626.4764
      -431.5774
  22355006.4444  -14706079.00848 -11452083.75145                  22355004.8544
        46.3384
  23235852.6964  -12332173.54947 -10937768.12045                  23235852.8754
     -2469.3414
  21233264.6594  -20884940.75948 -16267476.17546                  21233262.7684
      2754.7664
  20593508.4934  -27149926.65948 -21135077.33747                  20593506.5234
      -780.3474
  23877264.2374   -6189663.17947  -4808674.66745                  23877264.1214
      3823.7704
 06  6 28  4  8  0.0000000  0  9G15G18G29G26G21G10G 5G 9G30
  23187316.7394   -7263063.85346  -5646646.40744                  23187316.3644
      1228.6574
  22478940.1194  -14440062.16848 -11242759.17746                  22478937.5654
      3315.6884
  22981736.1854  -11505625.35347  -9393674.33245                  22981735.8444
      -129.5564
  22734090.3914  -13060546.21347 -10495587.71946                  22734090.3084
      -431.8904
  22354786.9774  -14707239.72048 -11452988.19645                  22354783.8734
        30.8894
  23249977.6034  -12257947.73447 -10879929.85745                  23249977.4964
     -2479.1314
  21217573.2874  -20967400.51348 -16331730.51746                  21217571.3574
      2742.4174
  20597995.4314  -27126348.18248 -21116704.51647                  20597993.0614
      -791.6364
  23855437.2364   -6304366.93447  -4898054.14345                  23855436.7864
      3823.0034
 06  6 28  4  8 30.0000000  0  9G15G18G29G26G21G10G 5G 9G30
  23180349.2664   -7299676.12046  -5675175.45044                  23180349.3364
      1211.7244
  22460029.6694  -14539436.89448 -11320194.00446                  22460027.5254
      3308.7214
  22982476.9724  -11501737.48547  -9390644.85745                  22982475.5874
      -130.1614
  22736557.9044  -13047584.91647 -10485488.06446                  22736557.0014
      -432.6864
  22354653.4504  -14707940.34148 -11453534.15645                  22354650.8834
        15.3084
  23264158.8274  -12183429.68947 -10821863.86845                  23264158.3204
     -2489.2244
  21201951.9404  -21049488.24648 -16395694.96646                  21201949.9974
      2729.4974
  20602545.5974  -27102435.07748 -21098070.94747                  20602543.9244
      -803.1254
  23833614.2614   -6419046.80147  -4987415.02644                  23833614.2614
      3821.7974
 06  6 28  4  9  0.0000000  0  9G15G18G29G26G21G10G 5G 9G30
  23173477.6874   -7335788.68146  -5703315.13944                  23173476.9714
      1195.4354
  22441157.9714  -14638609.17748 -11397471.09646                  22441155.3984
      3302.3344
  22983218.4674  -11497839.11947  -9387607.21245                  22983218.1304
      -130.0544
  22739026.2914  -13034610.91847 -10475378.48746                  22739025.5444
      -432.6814
  22354607.9534  -14708180.76648 -11453721.51345                  22354604.1694
          .3764
  23278394.5434  -12108619.37547 -10763570.16645                  23278394.0374
     -2498.5354
  21186403.6934  -21131199.22348 -16459365.84647                  21186401.4354
      2717.3884
  20607160.0514  -27078187.52748 -21079176.78347                  20607157.4934
      -813.7844
  23811796.2414   -6533698.45547  -5076753.87245                  23811796.9844
      3821.2894
 06  6 28  4  9 30.0000000  0  9G15G18G29G26G21G10G 5G 9G30
  23166700.3524   -7371403.79946  -5731067.20844                  23166699.4414
      1179.1454
  22422324.7024  -14737578.18148 -11474589.77846                  22422322.8894
      3295.7524
  22983962.0964  -11493930.99947  -9384561.97145                  22983962.2104
      -130.2204
  22741497.1384  -13021625.00748 -10465259.63946                  22741497.4824
      -432.8424
  22354648.4454  -14707964.58048 -11453553.06945                  22354645.6754
       -14.6094
  23292684.4974  -12033520.61147 -10705051.70345                  23292685.1324
     -2507.8474
  21170925.6584  -21212532.93448 -16522742.75346                  21170923.6104
      2704.9904
  20611837.2174  -27053610.02948 -21060025.51647                  20611834.8584
      -824.4534
  23789984.5564   -6648320.76347  -5166069.86944                  23789984.6174
      3820.4694
 06  6 28  4 10  0.0000000  0  9G15G18G29G26G21G10G 5G 9G30
  23160017.2884   -7406523.94146  -5758433.58544                  23160016.1734
      1162.2954
  22403529.8924  -14836343.54848 -11551549.79046                  22403527.6064
      3288.6284
  22984707.4924  -11490014.23447  -9381509.98645                  22984707.1744
      -130.7814
  22743970.4064  -13008628.85148 -10455132.79446                  22743970.1944
      -433.4284
  22354775.9944  -14707296.01448 -11453032.12245                  22354772.8264
       -29.8494
  23307030.0374  -11958137.15247 -10646311.39545                  23307029.4584
     -2517.6174
  21155520.5104  -21293488.71948 -16585825.15846                  21155518.5244
      2692.1444
  20616575.8374  -27028706.99648 -21040620.58247                  20616573.7094
      -835.5474
  23768178.8224   -6762914.05047  -5255363.25545                  23768177.0324
      3819.1414
 06  6 28  4 10 30.0000000  0  9G15G18G29G26G21G10G 5G 9G30
  23153429.0594   -7441146.36646  -5785412.13444                  23153428.3134
      1145.6934
  22384775.3434  -14934899.35548 -11628346.50346                  22384773.7504
      3281.6114
  22985455.6354  -11486084.25547  -9378447.70845                  22985455.5074
      -131.2994
  22746446.1524  -12995618.45148 -10444994.85646                  22746445.7314
      -433.9994
  22354989.5384  -14706173.52148 -11452157.46146                  22354986.9194
       -45.0394
  23321429.6244  -11882467.90347 -10587348.39345                  23321429.3834
     -2527.1194
  21140188.0324  -21374061.02048 -16648608.75046                  21140186.2564
      2679.2534
  20621376.9574  -27003477.67048 -21020961.38647                  20621374.7804
      -846.4844
  23746378.8874   -6877471.98347  -5344629.10245                  23746378.3964
      3817.9204
 06  6 28  4 11  0.0000000  0  9G15G18G29G26G21G10G 5G 9G30
  23146935.4574   -7475266.63946  -5811999.36244                  23146935.0034
      1128.7304
  22366062.1174  -15033238.00348 -11704974.00546                  22366059.8934
      3274.1944
  22986206.9514  -11482135.10247  -9375370.45445                  22986207.2014
      -132.1734
  22748925.7444  -12982588.02547 -10434841.30445                  22748925.8834
      -434.7024
  22355290.3724  -14704594.42748 -11450926.99946                  22355287.5634
       -60.4354
  23335883.7834  -11806509.94047 -10528160.39045                  23335883.7004
     -2536.9094
  21124930.1474  -21454242.24748 -16711087.61746                  21124927.8714
      2666.0454
  20626240.3214  -26977919.91148 -21001046.27147                  20626238.1534
      -857.4714
  23724587.5964   -6991987.53247  -5433861.90945                  23724586.3154
      3816.2704
 06  6 28  4 11 30.0000000  0  9G15G18G29G26G21G10G 5G 9G30
  23140538.4644   -7508887.89447  -5838197.73444                  23140537.3614
      1112.4954
  22347390.1614  -15131359.52548 -11781432.32446                  22347388.3654
      3267.1294
  22986961.6824  -11478168.29947  -9372279.47545                  22986962.1644
      -132.3584
  22751408.7144  -12969539.59147 -10424673.74745                  22751408.9054
      -435.0544
  22355676.3764  -14702562.99147 -11449344.09245                  22355673.6764
       -75.1514
  23350391.9074  -11730267.83247 -10468750.99745                  23350391.9524
     -2546.0304
  21109746.4464  -21534032.64548 -16773261.92546                  21109744.6184
      2653.2724
  20631165.3174  -26952038.88948 -20980879.26347                  20631163.1634
      -867.9444
  23702802.9584   -7106460.87547  -5523061.84945                  23702802.5464
      3815.1614
 06  6 28  4 12  0.0000000  0  9G15G18G29G26G21G10G 5G 9G30
  23134234.8024   -7542012.82046  -5864009.39844                  23134234.1044
      1096.1084
  22328759.9614  -15229263.63748 -11857721.22946                  22328757.3034
      3259.9864
  22987719.1054  -11474184.74247  -9369175.44145                  22987720.0484
      -132.9054
  22753894.7044  -12956474.64147 -10414493.31345                  22753895.0564
      -435.5964
  22356148.2354  -14700083.71948 -11447412.17945                  22356145.4554
       -89.9274
  23364954.2044  -11653745.98447 -10409123.65045                  23364953.8774
     -2555.1954
  21094637.6024  -21613432.00748 -16835131.55046                  21094634.9054
      2640.2594
  20636150.4274  -26925839.34648 -20960464.07247                  20636149.1084
      -878.4184
  23681027.7744   -7220892.43147  -5612229.17345                  23681027.1834
      3813.7744
 06  6 28  4 12 30.0000000  0  9G15G18G29G26G21G10G 5G 9G30
  23128025.6514   -7574643.56546  -5889435.97944                  23128024.8464
      1079.4344
  22310170.4394  -15326949.15548 -11933839.80646                  22310168.5354
      3252.4614
  22988480.6634  -11470185.14547  -9366058.87645                  22988481.2074
      -133.6384
  22756383.9034  -12943393.96947 -10404300.61346                  22756384.8714
      -436.2504
  22356704.9854  -14697159.89047 -11445133.87646                  22356702.4894
      -104.8584
  23379567.9524  -11576947.77947 -10349280.93645                  23379567.5974
     -2564.6144
  21079602.6064  -21692439.40548 -16896695.74046                  21079600.7044
      2627.0414
  20641196.2754  -26899325.51148 -20939803.97447                  20641194.8004
      -889.0674
  23659260.5244   -7335280.45947  -5701362.60245                  23659259.4824
      3812.1094
 06  6 28  4 13  0.0000000  0  9G15G18G29G26G21G10G 5G 9G30
  23121910.5404   -7606778.78747  -5914476.45444                  23121908.3814
      1062.9444
  22291624.2584  -15424411.86848 -12009784.76146                  22291622.5004
      3245.0834
  22989245.4054  -11466166.63247  -9362927.59745                  22989246.2534
      -134.2194
  22758876.4944  -12930295.31447 -10394093.91145                  22758876.4604
      -436.8604
  22357345.7734  -14693792.09847 -11442509.62145                  22357343.1734
      -119.5124
  23394235.6184  -11499873.52147 -10289223.11445                  23394234.7914
     -2573.6824
  21064643.2394  -21771050.62448 -16957951.21346                  21064641.2724
      2613.8624
  20646301.1944  -26872497.92148 -20918899.38847                  20646299.9514
      -899.3804
  23637502.5154   -7449621.25647  -5790459.24945                  23637500.8384
      3810.6594
 06  6 28  4 13 30.0000000  0  9G15G18G29G26G21G10G 5G 9G30
  23115887.6174   -7638424.57247  -5939135.50744                  23115887.9564
      1046.3774
  22273120.0194  -15521654.53048 -12085558.25046                  22273117.8594
      3237.3244
  22990012.6504  -11462133.38047  -9359784.82745                  22990012.9554
      -134.9664
  22761372.5014  -12917183.05547 -10383876.60745                  22761372.0254
      -437.6424
  22358069.4794  -14689987.67548 -11439545.15746                  22358067.1684
      -134.3654
  23408952.7114  -11422530.70747 -10228956.01645                  23408952.3304
     -2582.9304
  21049758.7194  -21849268.63348 -17018900.29047                  21049756.8484
      2600.3274
  20651464.6614  -26845364.27248 -20897756.31347                  20651463.0484
      -909.9804
  23615751.3714   -7563917.65247  -5879521.27645                  23615751.1434
      3808.6134
 06  6 28  4 14  0.0000000  0  9G15G18G29G26G21G10G 5G 9G30
  23109959.7044   -7669577.73447  -5963410.71944                  23109959.2794
      1030.4104
  22254657.7034  -15618671.21748 -12161155.63946                  22254655.6324
      3230.3324
  22990784.2174  -11458080.69947  -9356626.90945                  22990783.9904
      -135.2644
  22763870.6854  -12904053.18047 -10373645.56545                  22763871.1304
      -437.6864
  22358876.3684  -14685745.25448 -11436239.36045                  22358873.5994
      -148.4674
  23423721.8994  -11344917.83347 -10168478.51245                  23423721.8854
     -2591.4164
  21034950.2464  -21927087.49648 -17079538.35146                  21034948.5994
      2587.4174
  20656686.4844  -26817923.86348 -20876374.20547                  20656684.7574
      -919.6294
  23594011.2044   -7678163.27447  -5968543.78845                  23594010.5314
      3807.4564
 06  6 28  4 14 30.0000000  0  9G15G18G29G26G21G10G 5G 9G30
  23104126.1364   -7700235.44747  -5987299.86344                  23104124.7274
      1013.8924
  22236240.2694  -15715455.59148 -12236572.01246                  22236238.4924
      3222.5584
  22991559.7894  -11454003.83746  -9353450.18545                  22991560.2294
      -136.0354
  22766373.7714  -12890901.16347 -10363397.28645                  22766373.4154
      -438.4814
  22359767.7574  -14681063.65247 -11432591.36245                  22359765.4184
      -162.9834
  23438542.9964  -11267033.49747 -10107789.46545                  23438542.5714
     -2600.3914
  21020218.9584  -22004501.39148 -17139860.84947                  21020216.8884
      2574.0194
  20661966.7074  -26790175.91548 -20854752.44847                  20661964.5524
      -929.7364
  23572282.3094   -7792353.06047  -6057522.73245                  23572281.6774
      3805.6744
 06  6 28  4 15  0.0000000  0  9G15G18G29G26G21G10G 5G 9G30
  23098383.9394   -7730407.01947  -6010810.18344                  23098383.6804
       997.4464
  22217865.4794  -15812013.76548 -12311812.13446                  22217863.8074
      3214.6634
  22992339.0104  -11449910.41447  -9350260.51145                  22992338.8624
      -136.8654
  22768878.6554  -12877735.09447 -10353138.03345                  22768879.1654
      -439.2384
  22360740.0074  -14675953.55747 -11428609.49645                  22360737.2354
      -177.5444
  23453414.0154  -11188888.51347 -10046897.31645                  23453413.8654
     -2609.2924
  21005563.5614  -22081516.57448 -17199872.65947                  21005561.9974
      2560.4054
  20667303.2834  -26762131.72448 -20832899.85147                  20667301.4214
      -939.8054
  23550561.9074   -7906492.67847  -6146462.59645                  23550561.2284
      3803.7064
 06  6 28  4 15 30.0000000  0  9G15G18G29G26G21G10G 5G 9G30
  23092737.0114   -7760084.68747  -6033935.65844                  23092736.3264
       981.2114
  22199536.9284  -15908334.38548 -12386867.13146                  22199534.5794
      3206.8064
  22993122.6544  -11445790.49547  -9347050.22145                  22993123.4334
      -137.7004
  22771388.3784  -12864545.36147 -10342860.32745                  22771389.0284
      -439.8734
  22361795.6074  -14670408.10947 -11424288.37445                  22361792.3684
      -191.9734
  23468335.2504  -11110475.96747  -9985796.66445                  23468334.9904
     -2618.0964
  20990986.0034  -22158121.91748 -17259565.10846                  20990984.1104
      2546.8074
  20672697.5294  -26733784.90248 -20810811.45147                  20672695.2314
      -949.7414
  23528853.6024   -8020570.97247  -6235354.70345                  23528852.5344
      3801.7044
 06  6 28  4 16  0.0000000  0  9G15G18G29G26G21G10G 5G 9G30
  23087183.5744   -7789268.47247  -6056676.29444                  23087182.1074
       964.6394
  22181253.3934  -16004413.86248 -12461734.22246                  22181250.9974
      3198.6524
  22993912.3604  -11441642.37147  -9343817.93645                  22993912.2444
      -138.6524
  22773903.3384  -12851330.57447 -10332563.15945                  22773903.3874
      -440.9424
  22362933.1684  -14664428.90648 -11419629.26145                  22362930.2444
      -206.4704
  23483307.2364  -11031797.37847  -9924488.74345                  23483307.1604
     -2626.9534
  20976487.5174  -22234314.26848 -17318935.74846                  20976485.5094
      2532.9004
  20678149.2124  -26705137.49548 -20788488.82847                  20678147.0054
      -959.7714
  23507156.7964   -8134584.75147  -6324196.55145                  23507156.9434
      3799.3704
 06  6 28  4 16 30.0000000  0  9G15G18G29G26G21G10G 5G 9G30
  23081724.7254   -7817957.08747  -6079031.06444                  23081724.0354
       948.1454
  22163016.3304  -16100248.07948 -12536410.21246                  22163014.2204
      3190.4494
  22994707.4534  -11437462.83947  -9340561.19445                  22994708.1074
      -139.7714
  22776423.8724  -12838088.22247 -10322244.49245                  22776423.9824
      -441.7774
  22364153.2514  -14658016.41448 -11414632.51145                  22364150.7644
      -220.8894
  23498330.1774  -10952852.86047  -9862973.57345                  23498329.7494
     -2635.7914
  20962067.4584  -22310089.50348 -17377981.37346                  20962065.2914
      2518.9114
  20683657.7754  -26676190.00748 -20765932.35947                  20683655.6764
      -969.7954
  23485474.4844   -8248529.56547  -6412984.65245                  23485473.6594
      3797.0124
 06  6 28  4 17  0.0000000  0  9G15G18G29G26G21G10G 5G 9G30
  23076359.1334   -7846154.59847  -6101003.18344                  23076357.7024
       931.7684
  22144826.5784  -16195837.71448 -12610895.62346                  22144824.2314
      3182.2264
  22995508.7724  -11433254.29047  -9337281.83945                  22995508.7464
      -140.7284
  22778948.2414  -12824820.75547 -10311906.21545                  22778948.4494
      -442.6224
  22365455.1294  -14651176.11548 -11409302.41645                  22365452.5634
      -235.0984
  23513401.7394  -10873647.85747  -9801255.45045                  23513402.2244
     -2644.4924
  20947727.1024  -22385448.63548 -17436702.75047                  20947725.3804
      2505.0784
  20689222.0694  -26646948.62548 -20743146.87147                  20689220.3514
      -979.5754
  23463804.2484   -8362406.97147  -6501720.22645                  23463802.9944
      3794.7664
 06  6 28  4 17 30.0000000  0  9G15G18G29G26G21G10G 5G 9G30
  23071085.9144   -7873860.80347  -6122592.46544                  23071085.2174
       915.3914
  22126683.4554  -16291179.08648 -12685187.56946                  22126681.1964
      3173.9264
  22996315.5894  -11429014.41047  -9333978.08645                  22996315.4684
      -141.8124
  22781478.0994  -12811526.48347 -10301547.07845                  22781477.8884
      -443.5694
  22366838.2734  -14643909.10147 -11403639.81845                  22366835.0394
      -249.3414
  23528523.3734  -10794183.79947  -9739335.46645                  23528523.4344
     -2653.0184
  20933466.8084  -22460388.42048 -17495097.37646                  20933464.7314
      2491.0354
  20694842.3014  -26617414.95448 -20720133.64947                  20694840.4484
      -989.2724
  23442147.2764   -8476212.78847  -6590400.00845                  23442146.4754
      3792.3004
 06  6 28  4 18  0.0000000  0  9G15G18G29G26G21G10G 5G 9G30
  23065908.9894   -7901069.22647  -6143793.84744                  23065908.4584
       898.7844
  22108590.0814  -16386262.39448 -12759278.42646                  22108587.3844
      3165.2204
  22997129.8444  -11424734.75547  -9330643.30445                  22997129.9854
      -143.3694
  22784014.4554  -12798197.22148 -10291160.66845                  22784013.4674
      -444.8684
  22368302.5224  -14636210.40947 -11397640.86645                  22368300.3284
      -263.7704
  23543695.4064  -10714455.52147  -9677209.57545                  23543695.5764
     -2661.8904
  20919287.5484  -22534899.16548 -17553157.67646                  20919285.3974
      2476.5724
  20700519.2964  -26587584.23848 -20696888.96447                  20700517.1124
      -999.2534
  23420506.4824   -8589937.51947  -6679016.60545                  23420505.6864
      3789.5124
 06  6 28  4 18 30.0000000  0  9G15G18G29G26G21G10G 5G 9G30
  23060824.3914   -7927787.59247  -6164613.38644                  23060823.4694
       882.7104
  22090544.4834  -16481091.71748 -12833171.38546                  22090541.8574
      3156.9534
  22997951.1914  -11420421.03047  -9327282.02845                  22997951.4394
      -144.1944
  22786555.8304  -12784839.10547 -10280751.82145                  22786556.5594
      -445.6304
  22369848.0304  -14628089.17048 -11391312.65445                  22369845.7624
      -277.5244
  23558915.9824  -10634471.76147  -9614884.60345                  23558915.9214
     -2670.0984
  20905189.4464  -22608985.32248 -17610887.13647                  20905187.3214
      2462.6864
  20706250.3764  -26557465.67048 -20673419.94747                  20706248.2034
     -1008.5744
  23398879.6884   -8703585.18447  -6767573.13645                  23398878.7854
      3787.1494
 06  6 28  4 19  0.0000000  0  9G15G18G29G26G21G10G 5G 9G30
  23055833.2524   -7954018.45547  -6185053.03044                  23055832.3854
       866.2994
  22072547.1134  -16575666.52548 -12906866.00746                  22072544.4404
      3148.2714
  22998777.7024  -11416073.77047  -9323894.59045                  22998778.3634
      -145.3524
  22789103.5624  -12771453.34148 -10270321.36746                  22789103.3924
      -446.6554
  22371473.5384  -14619549.27248 -11384658.19645                  22371471.1294
      -291.5874
  23574184.0314  -10554236.61447  -9552363.77845                  23574184.3104
     -2678.5504
  20891171.8844  -22682646.43748 -17668285.39647                  20891170.3814
      2448.2964
  20712035.7874  -26527063.41948 -20649729.88847                  20712033.2164
     -1018.0524
  23377268.2284   -8817155.50347  -6856069.43445                  23377267.5194
      3784.3704
 06  6 28  4 19 30.0000000  0  9G15G18G29G26G21G10G 5G 9G30
  23050934.3494   -7979759.65547  -6205111.15644                  23050932.9894
       849.8494
  22054600.2614  -16669981.13748 -12980357.89146                  22054596.8284
      3139.4784
  22999612.6064  -11411688.84147  -9320477.81745                  22999612.3564
      -146.8264
  22791656.8074  -12758035.75448 -10259866.13846                  22791658.8544
      -447.7984
  22373177.9284  -14610590.23047 -11377677.12545                  22373175.9024
      -305.6154
  23589499.9334  -10473749.14347  -9489646.34545                  23589500.6384
     -2687.1194
  20877236.8144  -22755877.36948 -17725348.44546                  20877234.8764
      2433.7944
  20717875.2994  -26496377.84248 -20625819.07147                  20717872.5494
     -1027.5344
  23355672.0734   -8930642.67947  -6944500.92145                  23355671.2324
      3781.4654
 06  6 28  4 20  0.0000000  0  9G15G18G29G26G21G10G 5G 9G30
  23046127.8944   -8005015.87547  -6224791.32244                  23046128.2484
       833.8574
  22036701.8294  -16764036.37048 -13053647.65446                  22036698.9874
      3130.8254
  23000453.4724  -11407268.80847  -9317033.67245                  23000454.0514
      -147.8524
  22794216.0044  -12744589.34648 -10249388.43446                  22794216.2094
      -448.7014
  22374961.8264  -14601218.02548 -11370374.13445                  22374958.9494
      -319.2144
  23604863.1304  -10393015.07047  -9426736.74045                  23604863.5574
     -2695.2834
  20863383.0144  -22828679.51548 -17782077.36746                  20863380.6804
      2419.5364
  20723767.2154  -26465415.03748 -20601692.21147                  20723764.4294
     -1036.6754
  23334091.4084   -9044048.35847  -7032868.90245                  23334091.0204
      3778.8574
 06  6 28  4 20 30.0000000  0  9G15G18G29G26G21G10G 5G 9G30
  23041414.6214   -8029786.27547  -6244092.95444                  23041413.5604
       817.6814
  22018853.9474  -16857828.03748 -13126732.04446                  22018850.5804
      3122.0024
  23001302.2604  -11402810.63747  -9313559.85145                  23001302.8194
      -149.2094
  22796780.6864  -12731111.79448 -10238886.46945                  22796781.8284
      -449.7664
  22376824.0744  -14591433.01648 -11362749.44345                  22376821.1274
      -333.0034
  23620273.3814  -10312034.94247  -9363635.38644                  23620273.7254
     -2703.3644
  20849611.7734  -22901048.71448 -17838468.94547                  20849609.6684
      2405.0634
  20729711.6234  -26434175.35448 -20577349.61847                  20729709.3094
     -1045.9134
  23312527.6604   -9157367.82147  -7121169.73045                  23312526.7444
      3775.8064
 06  6 28  4 21  0.0000000  0  9G15G18G29G26G21G10G 5G 9G30
  23036794.3294   -8054069.92847  -6263015.31944                  23036793.1074
       801.2994
  22001056.6144  -16951351.75448 -13199607.65246                  22001053.6104
      3112.8564
  23002158.3504  -11398311.49947  -9310054.03645                  23002158.4524
      -150.6694
  22799352.0154  -12717600.54948 -10228358.26845                  22799350.9174
      -451.0064
  22378764.5124  -14581236.16348 -11354803.86545                  22378761.6814
      -346.7974
  23635730.4184  -10230809.22047  -9300342.68845                  23635729.9394
     -2711.6944
  20835923.3024  -22972981.19348 -17894520.21646                  20835920.7634
      2390.3374
  20735709.0814  -26402660.29848 -20552792.46047                  20735706.4734
     -1055.1424
  23290980.3094   -9270597.02847  -7209400.19245                  23290980.0374
      3772.7644
 06  6 28  4 21 30.0000000  0  9G15G18G29G26G21G10G 5G 9G30
  23032264.4054   -8077870.93447  -6281561.56044                  23032262.8384
       785.1514
  21983311.0944  -17044607.92948 -13272274.76446                  21983307.5744
      3103.8234
  23003021.5584  -11393773.26147  -9306517.79145                  23003021.5404
      -152.1194
  22801929.0424  -12704057.55548 -10217805.36245                  22801928.6564
      -452.2174
  22380782.0604  -14570632.93148 -11346541.62145                  22380779.6004
      -360.4304
  23651233.2624  -10149343.17647  -9236862.71545                  23651233.1484
     -2719.7754
  20822318.1364  -23044477.94448 -17950231.95547                  20822315.5524
      2375.7324
  20741757.6384  -26370875.64948 -20528025.20247                  20741755.3294
     -1064.1944
  23269451.3524   -9383736.77847  -7297560.99345                  23269450.4584
      3769.6144
 06  6 28  4 22  0.0000000  0  9G15G18G29G26G21G10G 5G 9G30
  23027828.9484   -8101182.76647  -6299726.66344                  23027827.9614
       768.9454
  21965617.4774  -17137586.68348 -13344725.70946                  21965613.6564
      3094.6244
  23003895.0224  -11389187.18447  -9302944.26845                  23003894.7484
      -153.5744
  22804513.5104  -12690474.57748 -10207221.24945                  22804513.2934
      -453.4674
  22382878.6124  -14559617.83648 -11337958.45446                  22382875.9664
      -374.0094
  23666782.9624  -10067631.25847  -9173191.13844                  23666782.2104
     -2727.8324
  20808797.2134  -23115528.98248 -18005596.39146                  20808795.0324
      2360.8934
  20747858.2464  -26338816.12948 -20503043.77447                  20747855.5254
     -1073.2574
  23247939.9624   -9496776.54947  -7385643.85245                  23247939.5554
      3766.3284
 06  6 28  4 22 30.0000000  0  9G15G18G29G26G21G10G 5G 9G30
  23023484.9854   -8124011.33647  -6317515.16544                  23023484.0054
       752.7784
  21947976.8544  -17230289.88048 -13416961.93646                  21947972.2384
      3085.3374
  23004776.1284  -11384556.77747  -9299336.18645                  23004776.4954
      -155.2104
  22807105.5904  -12676855.66048 -10196609.13845                  22807105.3854
      -454.7074
  22385051.5054  -14548198.16248 -11329060.00145                  22385049.0234
      -387.5294
  23682376.6364   -9985680.63447  -9109333.57144                  23682376.5314
     -2735.7714
  20795361.0154  -23186136.95548 -18060615.57746                  20795359.2114
      2346.0694
  20754009.8684  -26306488.82348 -20477853.67847                  20754007.4944
     -1082.2514
  23226447.7174   -9609718.97947  -7473650.88645                  23226447.0664
      3762.9054
 06  6 28  4 23  0.0000000  0  9G15G18G29G26G21G10G 5G 9G30
  23019231.6184   -8146357.29947  -6334927.60944                  23019231.7654
       736.8754
  21930388.6284  -17322714.70948 -13488981.25046                  21930383.4774
      3076.1524
  23005665.9134  -11379880.58647  -9295692.44745                  23005666.0874
      -156.5774
  22809704.3154  -12663199.63947 -10185968.10845                  22809704.5334
      -455.7474
  22387300.8454  -14536376.06347 -11319847.99445                  22387298.9174
      -400.7474
  23698016.8324   -9903493.35447  -9045291.57945                  23698016.5054
     -2743.4964
  20782009.4454  -23256299.39448 -18115287.59047                  20782007.8744
      2331.3144
  20760211.6864  -26273896.39848 -20452456.98447                  20760209.6774
     -1090.8204
  23204974.4024   -9722561.14247  -7561579.77345                  23204973.4734
      3759.6974
 06  6 28  4 23 30.0000000  0  9G15G18G29G26G21G10G 5G 9G30
  23015070.0454   -8168225.59747  -6351967.84144                  23015070.0704
       720.9674
  21912853.5804  -17414862.34048 -13560784.59246                  21912848.1754
      3067.0074
  23006563.8834  -11375161.30547  -9292015.11345                  23006563.6864
      -157.9984
  22812308.8754  -12649509.56248 -10175300.53945                  22812309.0794
      -456.8804
  22389625.6644  -14524157.77548 -11310327.26745                  22389623.1114
      -413.9064
  23713700.5894   -9821075.47547  -8981069.92645                  23713700.5874
     -2750.9574
  20768742.5264  -23326017.97448 -18169613.74946                  20768740.7094
      2316.5774
  20766462.9804  -26241045.28248 -20426858.73647                  20766461.1934
     -1099.3024
  23183519.7884   -9835304.47147  -7649431.66945                  23183518.7904
      3756.4504
 06  6 28  4 24  0.0000000  0  9G15G18G29G26G21G10G 5G 9G30
  23011001.1364   -8189611.13747  -6368631.90644                  23011000.1954
       704.6534
  21895372.8824  -17506724.05148 -13632365.10746                  21895367.1914
      3056.9394
  23007471.7024  -11370391.59147  -9288298.46745                  23007471.8834
      -160.0594
  22814921.7804  -12635778.58848 -10164601.11446                  22814922.8694
      -458.6384
  22392026.6674  -14511539.67748 -11300494.99646                  22392024.7314
      -427.6034
  23729429.2164   -9738423.08847  -8916665.52945                  23729429.4354
     -2759.2244
  20755561.9684  -23395284.60648 -18223587.73347                  20755560.0864
      2301.0604
  20772764.4064  -26207931.58148 -20401055.86547                  20772762.4784
     -1108.3304
  23162086.3024   -9947940.58747  -7737200.01445                  23162085.1464
      3752.4564
 06  6 28  4 24 30.0000000  0  9G15G18G29G26G21G10G 5G 9G30
  23007023.1864   -8210513.75347  -6384919.68345                  23007023.5824
       688.7304
  21877947.3654  -17598295.89748 -13703719.76646                  21877942.6514
      3047.5684
  23008389.2424  -11365568.82147  -9284540.52545                  23008389.8334
      -161.6754
  22817543.4394  -12622004.36047 -10153867.97946                  22817543.7584
      -459.8684
  22394504.4074  -14498522.77247 -11290351.97346                  22394502.1564
      -440.4204
  23745201.1444   -9655536.95847  -8852079.01344                  23745201.5924
     -2766.7244
  20742467.1694  -23464095.69448 -18277206.74647                  20742465.4944
      2286.0894
  20779115.5144  -26174557.06148 -20375049.77447                  20779113.3284
     -1116.7684
  23140673.3714  -10060465.29947  -7824881.54045                  23140673.0274
      3749.0244
 06  6 28  4 25  0.0000000  0  9G15G18G29G26G21G10G 5G 9G30
  23003137.6624   -8230934.62647  -6400832.06244                  23003135.9914
       672.7884
  21860577.1134  -17689575.80348 -13774846.94046                  21860572.4824
      3037.8914
  23009317.5574  -11360692.19047  -9280740.58945                  23009317.6134
      -163.3064
  22820172.6574  -12608186.36847 -10143100.71345                  22820173.2284
      -461.2164
  22397056.6224  -14485109.96747 -11279900.46445                  22397054.1304
      -453.4864
  23761018.6404   -9572419.54847  -8787312.26844                  23761017.3124
     -2774.2094
  20729460.0184  -23532449.52048 -18330469.45447                  20729458.1424
      2271.0254
  20785515.3454  -26140924.49948 -20348842.59947                  20785514.0354
     -1125.2054
  23119282.7944  -10172876.32048  -7912474.49545                  23119281.8354
      3745.2544
 06  6 28  4 25 30.0000000  0  9G15G18G29G26G21G10G 5G 9G30
  22999342.7854   -8250875.16747  -6416370.13644                  22999343.2584
       656.7334
  21843263.5154  -17780561.07248 -13845744.53446                  21843259.3184
      3027.9644
  23010256.7464  -11355760.36047  -9276897.60645                  23010256.3564
      -165.2544
  22822810.3554  -12594323.95947 -10132298.84746                  22822810.8434
      -462.7494
  22399684.1194  -14471303.91848 -11269142.51545                  22399681.4964
      -466.5334
  23776878.2574   -9489073.37747  -8722367.23544                  23776877.7424
     -2781.8954
  20716540.2654  -23600343.86548 -18383374.11847                  20716537.8574
      2255.5624
  20791964.3004  -26107036.96348 -20322436.76047                  20791962.6574
     -1133.6774
  23097912.8074  -10285171.01848  -7999976.81245                  23097912.5874
      3741.2504
 06  6 28  4 26  0.0000000  0  9G15G18G29G26G21G10G 5G 9G30
  22995640.0274   -8270331.24047  -6431530.71944                  22995639.3924
       640.4694
  21826007.1514  -17871243.36548 -13916406.03546                  21826004.4054
      3017.6084
  23011206.5544  -11350767.10147  -9273006.76145                  23011206.1974
      -167.4714
  22825458.4644  -12580410.98847 -10121457.58645                  22825457.9414
      -464.5904
  22402386.6414  -14457101.85848 -11258075.98345                  22402384.0104
      -480.0444
  23792782.0554   -9405495.42047  -8657241.60344                  23792783.0154
     -2789.7414
  20703708.5674  -23667771.68448 -18435915.24946                  20703707.2034
      2239.8294
  20798461.7764  -26072891.02148 -20295829.56347                  20798460.4624
     -1142.4514
  23076567.4504  -10397342.24547  -8087382.92345                  23076566.5284
      3736.9244
 06  6 28  4 26 30.0000000  0  9G15G18G29G26G21G10G 5G 9G30
  22992028.7094   -8289312.59547  -6446321.36944                  22992028.0494
       624.8934
  21808806.8864  -17961629.16348 -13986836.51046                  21808805.4714
      3007.9004
  23012167.5034  -11345719.64947  -9269073.69945                  23012167.4974
      -169.1314
  22828113.5894  -12566455.19447 -10110582.95645                  22828114.3954
      -465.8114
  22405162.1674  -14442514.69348 -11246709.36045                  22405159.9334
      -492.5734
  23808728.8514   -9321696.75847  -8591944.02444                  23808729.9434
     -2796.9684
  20690965.3984  -23734739.36948 -18488097.83646                  20690963.3664
      2224.6344
  20805006.8514  -26038498.46348 -20269030.21147                  20805004.2964
     -1150.4204
  23055244.6184  -10509395.70448  -8174697.25445                  23055244.2904
      3733.1984
 06  6 28  4 27  0.0000000  0  9G15G18G29G26G21G10G 5G 9G30
  22988506.2894   -8307821.71747  -6460744.09244                  22988506.5864
       608.9894
  21791664.0234  -18051717.48648 -14057035.19146                  21791663.4724
      2997.8954
  23013137.5454  -11340618.28247  -9265098.61645                  23013137.4804
      -170.9964
  22830777.8724  -12552456.87748 -10099675.18245                  22830778.1654
      -467.3834
  22408010.5624  -14427546.48448 -11235045.83945                  22408007.7294
      -505.3524
  23824716.6414   -9237680.73347  -8526477.09844                  23824717.8224
     -2804.1944
  20678309.7174  -23801246.23648 -18539921.36046                  20678307.2144
      2209.1994
  20811598.4874  -26003862.80048 -20242041.42847                  20811595.9304
     -1158.6184
  23033944.0694  -10621330.43148  -8261919.06845                  23033943.0684
      3729.0974
 06  6 28  4 27 30.0000000  0  9G15G18G29G26G21G10G 5G 9G30
  22985075.7644   -8325851.01047  -6474792.89144                  22985074.3064
       592.8034
  21774579.3624  -18141496.42248 -14126992.79146                  21774579.6854
      2987.1634
  23014120.3244  -11335452.53647  -9261073.38045                  23014120.2784
      -173.4334
  22833451.0574  -12538406.32347 -10088726.72345                  22833451.9524
      -469.4634
  22410932.7154  -14412190.58548 -11223080.21445                  22410930.5584
      -518.5164
  23840747.2664   -9153440.57047  -8460835.46344                  23840747.0034
     -2811.9434
  20665743.5064  -23867281.21748 -18591377.17646                  20665741.5974
      2193.0764
  20818236.5294  -25968977.63548 -20214858.19147                  20818233.9734
     -1167.1884
  23012668.5004  -10733134.11348  -8349038.78845                  23012667.4914
      3724.3514
 06  6 28  4 28  0.0000000  0  9G15G18G29G26G21G10G 5G 9G30
  22981736.3764   -8343399.39546  -6488466.92644                  22981735.5554
       577.3004
  21757554.9054  -18230961.01548 -14196705.43946                  21757555.0584
      2977.1974
  23015115.9194  -11330218.86747  -9256995.17945                  23015116.8414
      -175.3034
  22836136.0814  -12524300.28447 -10077735.01945                  22836135.6944
      -470.8894
  22413928.9234  -14396447.29047 -11210812.73545                  22413926.1854
      -530.8404
  23856819.8024   -9068976.26646  -8395019.15544                  23856820.1504
     -2818.8284
  20653267.8394  -23932839.93548 -18642461.88046                  20653266.3574
      2177.6464
  20824922.3454  -25933843.61248 -20187481.05347                  20824920.0274
     -1174.9614
  22991418.4874  -10844802.62448  -8436053.16046                  22991417.8954
      3720.2834
 06  6 28  4 28 30.0000000  0  9G15G18G29G26G21G10G 5G 9G30
  22978487.2434   -8360470.61746  -6501769.18544                  22978486.7564
       561.0994
  21740590.1524  -18320111.16348 -14266173.06546                  21740589.2784
      2966.3384
  23016125.0224  -11324918.59547  -9252865.12645                  23016125.1334
      -177.8274
  22838830.7114  -12510140.46048 -10066701.37845                  22838830.6894
      -472.9884
  22416997.2554  -14380321.77748 -11198247.41645                  22416995.0994
      -543.8534
  23872934.9454   -8984292.70046  -8329032.02944                  23872935.5234
     -2826.4214
  20640882.9374  -23997923.09448 -18693176.02246                  20640881.3114
      2161.4754
  20831654.4324  -25898465.85448 -20159913.99747                  20831652.3814
     -1183.2674
  22970194.9624  -10956336.12248  -8522962.31646                  22970193.8884
      3715.4934
 06  6 28  4 29  0.0000000  0  9G15G18G29G26G21G10G 5G 9G30
  22975328.4674   -8377068.97047  -6514702.95144                  22975328.3954
       545.6014
  21723685.5944  -18408947.07648 -14335395.83846                  21723683.7184
      2956.1094
  23017145.7164  -11319553.53247  -9248684.55245                  23017146.0184
      -179.7514
  22841534.9884  -12495928.87148 -10055627.42345                  22841534.7774
      -474.4044
  22420137.4514  -14363819.33548 -11185388.41745                  22420135.5344
      -556.1524
  23889090.7514   -8899395.06947  -8262878.11344                  23889091.0214
     -2833.2674
  20628588.3084  -24062531.44948 -18743520.19647                  20628586.6284
      2145.8944
  20838431.4514  -25862849.71348 -20132161.18447                  20838429.7244
     -1190.9864
  22948996.5014  -11067734.12148  -8609765.92245                  22948995.1634
      3711.1814
 06  6 28  4 29 30.0000000  0  9G15G18G29G26G21G10G 5G 9G30
  22972258.9454   -8393200.56447  -6527273.04144                  22972258.4834
       529.8934
  21706839.6454  -18497471.21448 -14404375.66246                  21706838.1224
      2945.5574
  23018178.1514  -11314127.05247  -9244456.13145                  23018178.6164
      -181.9044
  22844247.8074  -12481669.58548 -10044516.27645                  22844248.3534
      -476.1674
  22423347.8654  -14346947.54848 -11172241.57945                  22423345.7704
      -568.5844
  23905286.2624   -8814290.32047  -8196562.80345                  23905286.5644
     -2840.3614
  20616383.7774  -24126667.94348 -18793496.66946                  20616381.8884
      2129.9764
  20845252.7814  -25827002.53648 -20104228.34347                  20845251.1894
     -1198.7114
  22927823.2454  -11178999.57247  -8696466.24145                  22927821.6574
      3706.6064
 06  6 28  4 30  0.0000000  0  9G15G18G29G26G21G10G 5G 9G30
  22969279.7954   -8408863.47547  -6539477.89244                  22969278.0414
       514.5414
  21690055.0934  -18585677.75548 -14473108.01046                  21690052.4314
      2935.0544
  23019223.1464  -11308634.85447  -9240176.49545                  23019224.1444
      -184.0194
  22846971.2634  -12467358.26948 -10033364.60945                  22846971.3944
      -477.7494
  22426628.8284  -14329705.75548 -11158806.41945                  22426626.9004
      -580.6644
  23921520.8264   -8728977.64646  -8130085.48844                  23921520.8024
     -2846.9784
  20604270.1394  -24190327.33748 -18843101.38047                  20604267.7914
      2114.2434
  20852118.2114  -25790923.76648 -20076115.06147                  20852117.2514
     -1206.2794
  22906676.0684  -11290126.02947  -8783058.25545                  22906675.2394
      3702.0854
 06  6 28  4 30 30.0000000  0  9G15G18G29G26G21G10G 5G 9G30
  22966386.4584   -8424059.49347  -6551318.95344                  22966386.9454
       498.9014
  21673330.8004  -18673563.92948 -14541590.71346                  21673328.2224
      2924.2724
  23020281.5794  -11303075.95547  -9235844.88045                  23020281.9674
      -186.3234
  22849704.9784  -12452994.58548 -10022172.12545                  22849704.6994
      -479.5464
  22429979.5664  -14312097.03148 -11145085.35545                  22429977.6404
      -592.9154
  23937794.4904   -8643459.62147  -8063448.12044                  23937794.7714
     -2853.8184
  20592246.7284  -24253508.12948 -18892333.15847                  20592244.8354
      2098.1014
  20859027.1494  -25754616.06148 -20047823.37147                  20859026.4484
     -1213.9164
  22885556.5624  -11401111.94848  -8869540.76846                  22885555.6324
      3697.2314
 06  6 28  4 31  0.0000000  0  9G15G18G29G26G21G10G 5G 9G30
  22963584.5584   -8438788.36647  -6562796.00644                  22963584.1144
       483.1054
  21656667.6464  -18761125.86548 -14609820.77947                  21656665.4654
      2913.1694
  23021352.4984  -11297447.51247  -9231459.08445                  23021352.5494
      -188.8184
  22852448.3324  -12438575.90248 -10010936.79345                  22852448.2954
      -481.6214
  22433400.3484  -14294122.47848 -11131079.25945                  22433397.9984
      -605.2694
  23954106.9944   -8557736.93147  -7996651.28544                  23954107.0004
     -2860.8744
  20580315.5764  -24316206.68648 -18941189.16746                  20580313.6434
      2081.8164
  20865979.9784  -25718080.40948 -20019354.07147                  20865978.3554
     -1221.6804
  22864464.3954  -11511953.19848  -8955910.53146                  22864463.2864
      3692.1344
 06  6 28  4 31 30.0000000  0  9G15G18G29G26G21G10G 5G 9G30
  22960870.4554   -8453047.64347  -6573907.12944                  22960870.1614
       467.3884
  21640068.2214  -18848356.94448 -14677793.02646                  21640065.7144
      2901.9974
  23022437.6274  -11291744.38047  -9227015.06545                  23022438.1704
      -191.5724
  22855204.1704  -12424097.39248  -9999654.84445                  22855204.1164
      -483.8094
  22436890.9474  -14275780.53548 -11116786.85245                  22436888.2624
      -617.7054
  23970458.9304   -8471808.11047  -7929693.80944                  23970458.6204
     -2867.8864
  20568477.0574  -24378417.33448 -18989664.99446                  20568475.0904
      2065.3914
  20872976.5024  -25681315.84048 -19990706.39047                  20872974.7814
     -1229.3464
  22843400.4154  -11622643.02847  -9042162.30246                  22843399.5014
      3686.9924
 06  6 28  4 32  0.0000000  0  9G15G18G29G26G21G10G 5G 9G30
  22958246.7374   -8466835.79947  -6584651.15444                  22958246.5064
       452.1444
  21623532.6684  -18935251.96448 -14745503.41146                  21623530.4874
      2891.2404
  23023537.0394  -11285962.36346  -9222509.57245                  23023538.2114
      -193.5504
  22857971.4384  -12409555.23948  -9988323.28545                  22857971.0504
      -485.4644
  22440450.5304  -14257070.97348 -11102207.99345                  22440448.6974
      -629.4534
  23986849.7914   -8385672.66647  -7862575.38944                  23986850.1944
     -2874.2294
  20556732.9544  -24440135.17848 -19037756.81546                  20556730.8054
      2049.3514
  20880017.2024  -25644322.03348 -19961880.08247                  20880014.5704
     -1236.5874
  22822366.4754  -11733175.98547  -9128291.83545                  22822365.4494
      3682.1054
 06  6 28  4 32 30.0000000  0  9G15G18G29G26G21G10G 5G 9G30
  22955711.7564   -8480157.22147  -6595031.47644                  22955711.5034
       436.2794
  21607061.1824  -19021811.27648 -14812952.20547                  21607058.7764
      2879.7274
  23024652.8514  -11280102.91547  -9217943.77445                  23024653.2714
      -196.6654
  22860749.9854  -12394951.51348  -9976943.75545                  22860750.4444
      -487.7734
  22444079.9054  -14237999.39047 -11087347.03945                  22444078.0834
      -641.6704
  24003279.3784   -8299335.50247  -7795299.78344                  24003280.1064
     -2881.1824
  20545082.1324  -24501361.35148 -19085465.50046                  20545079.9414
      2032.6514
  20887098.8114  -25607104.37948 -19932879.31547                  20887096.8794
     -1244.2434
  22801362.8784  -11843552.45847  -9214299.45446                  22801360.7954
      3676.6314
 06  6 28  4 33  0.0000000  0  9G15G18G29G26G21G10G 5G 9G30
  22953264.4484   -8493014.72547  -6605050.31844                  22953264.5344
       420.8544
  21590653.5774  -19108033.52748 -14880138.36147                  21590650.6564
      2868.4824
  23025782.3344  -11274166.62846  -9213318.08845                  23025783.0174
      -199.1804
  22863540.4574  -12380286.75647  -9965516.69145                  22863540.3834
      -489.7804
  22447777.0474  -14218570.28847 -11072207.49245                  22447775.2794
      -653.5554
  24019746.0314   -8212801.00447  -7727870.39244                  24019747.0004
     -2887.6904
  20533525.3004  -24562095.63548 -19132790.93246                  20533522.9664
      2016.2944
  20894222.2724  -25569666.94448 -19903707.32647                  20894220.6954
     -1251.5484
  22780389.1374  -11953771.02148  -9300184.01545                  22780387.6774
      3671.3334
 06  6 28  4 33 30.0000000  0  9G15G18G29G26G21G10G 5G 9G30
  22950906.6304   -8505405.31347  -6614705.30744                  22950907.0064
       405.4054
  21574311.3164  -19193911.90448 -14947056.54347                  21574308.6094
      2856.9974
  23026927.9794  -11268147.46547  -9208627.81745                  23026928.0044
      -201.8804
  22866344.1204  -12365555.53048  -9954037.81445                  22866343.9484
      -492.0514
  22451543.0434  -14198781.53847 -11056787.71145                  22451541.0344
      -665.4304
  24036251.2224   -8126066.54847  -7660285.16844                  24036251.6404
     -2894.2584
  20522062.3444  -24622331.30948 -19179727.81047                  20522060.2144
      1999.7124
  20901388.8994  -25532007.51348 -19874362.35247                  20901387.4184
     -1258.8484
  22759446.6484  -12063824.90148  -9385940.25546                  22759444.5554
      3665.9184
 06  6 28  4 34  0.0000000  0  9G15G18G29G26G21G10G 5G 9G30
  22948634.8344   -8517346.49847  -6624010.13344                  22948635.4114
       390.2884
  21558032.2104  -19279459.45648 -15013716.96447                  21558029.5494
      2845.7374
  23028086.4294  -11262060.12647  -9203884.43845                  23028086.5904
      -204.3364
  22869156.9704  -12350772.96848  -9942518.94545                  22869156.6324
      -493.9314
  22455373.6874  -14178651.93448 -11041102.33145                  22455371.5804
      -676.9784
  24052791.2774   -8039150.43547  -7592558.43044                  24052790.4284
     -2900.5084
  20510691.5284  -24682082.81748 -19226287.42547                  20510689.4024
      1983.3304
  20908594.1854  -25494144.76648 -19844858.95347                  20908591.8344
     -1265.7764
  22738532.6034  -12173727.47748  -9471578.57846                  22738531.7654
      3660.5134
 06  6 28  4 34 30.0000000  0  9G15G18G29G26G21G10G 5G 9G30
  22946450.3574   -8528825.99047  -6632955.19844                  22946450.4004
       374.8294
  21541818.6434  -19364660.18148 -15080107.11946                  21541815.9594
      2834.0484
  23029260.4534  -11255889.76146  -9199076.35745                  23029260.6224
      -207.2954
  22871982.6954  -12335924.33748  -9930948.56446                  22871982.3944
      -496.2214
  22459271.0024  -14158170.47848 -11025142.76245                  22459269.1334
      -688.8044
  24069366.7034   -7952041.38847  -7524681.31144                  24069367.8484
     -2907.0024
  20499416.5994  -24741334.61548 -19272457.64447                  20499414.6954
      1966.5194
  20915840.5944  -25456067.60748 -19815188.46847                  20915837.8904
     -1273.0224
  22717650.6504  -12283462.69847  -9557086.48746                  22717649.5184
      3654.8394
 06  6 28  4 35  0.0000000  0  9G15G18G29G26G21G10G 5G 9G30
  22944355.3084   -8539838.23647  -6641536.20345                  22944354.3284
       359.3854
  21525673.7484  -19449503.96748 -15146219.13646                  21525671.0174
      2822.1294
  23030451.9704  -11249627.80647  -9194196.89345                  23030452.7354
      -210.2494
  22874821.7924  -12321001.52847  -9919320.41245                  22874822.1314
      -498.6334
  22463236.7804  -14137332.38048 -11008905.31345                  22463234.8864
      -700.5034
  24085981.3294   -7864734.48947  -7456650.06744                  24085981.3204
     -2913.5404
  20488238.4154  -24800077.53648 -19318231.35147                  20488235.9174
      1949.6784
  20923128.1854  -25417771.20148 -19785347.14647                  20923125.6824
     -1280.1564
  22696802.4374  -12393020.07947  -9642455.84946                  22696801.4404
      3648.9554
 06  6 28  4 35 30.0000000  0 10G15G18G29G26G21G10G 5G 9G30G22
  22942345.7394   -8550393.68346  -6649761.21144                  22942345.4984
       344.1214
  21509594.9764  -19533997.26348 -15212058.04246                  21509592.0244
      2810.4744
  23031659.3934  -11243281.94947  -9189252.04645                  23031659.5904
      -213.1204
  22877674.7574  -12306012.46048  -9907640.61045                  22877674.5604
      -500.8594
  22467267.5604  -14116149.51848 -10992399.20045                  22467265.2394
      -711.9824
  24102630.0384   -7777241.15647  -7388473.55244                  24102630.8694
     -2919.6294
  20477155.0144  -24858318.96948 -19363614.27547                  20477153.2014
      1932.8954
  20930454.7204  -25379267.15548 -19755344.02647                  20930453.2104
     -1287.0124
  22675986.7324  -12502406.76347  -9727692.16846                  22675985.3274
      3643.2184
  24779655.0754     -95853.08746    -64436.69343                  24779653.8734
      3681.9094
 06  6 28  4 36  0.0000000  0 10G15G18G29G26G21G10G 5G 9G30G22
  22940425.5564   -8560487.63747  -6657626.63045                  22940425.0044
       328.9794
  21493584.7114  -19618131.18748 -15277616.93346                  21493581.9424
      2798.6384
  23032884.5974  -11236844.49747  -9184235.85245                  23032885.0024
      -215.8594
  22880540.9444  -12290949.88648  -9895903.56145                  22880540.4894
      -503.1794
  22471365.0004  -14094618.45447 -10975621.76245                  22471362.4404
      -723.2864
  24119317.2074   -7689557.43847  -7320148.66844                  24119316.6414
     -2925.8114
  20466169.3744  -24916050.74248 -19408600.06246                  20466167.1084
      1916.0944
  20937822.0144  -25340551.89248 -19725176.32347                  20937819.9464
     -1293.8284
  22655205.1424  -12611613.50947  -9812788.30646                  22655203.9104
      3637.4374
  24758638.9804    -206295.25346   -150495.54643                  24758637.1674
      3681.0014
 06  6 28  4 36 30.0000000  0 10G15G18G29G26G21G10G 5G 9G30G22
  22938590.9534   -8570130.83847  -6665140.84545                  22938590.6004
       314.1944
  21477641.8944  -19701911.91948 -15342900.58446                  21477639.0494
      2787.0074
  23034125.5814  -11230323.32647  -9179154.41145                  23034126.0484
      -218.6624
  22883419.7184  -12275821.90848  -9884115.51145                  22883419.8664
      -505.1224
  22475526.1014  -14072750.81547 -10958582.05945                  22475523.7564
      -734.3754
  24136036.5734   -7601694.67647  -7251684.26744                  24136036.0864
     -2931.6164
  20455279.0364  -24973280.21648 -19453194.45446                  20455276.5934
      1899.3904
  20945227.2174  -25301636.66748 -19694852.80547                  20945225.3214
     -1300.2694
  22634457.4194  -12720646.56147  -9897749.09346                  22634455.9794
      3631.7384
  24737629.0754    -316705.39946   -236529.42644                  24737626.9884
      3680.0004
 06  6 28  4 37  0.0000000  0 10G15G18G29G26G21G10G 5G 9G30G22
  22936841.7674   -8579321.43747  -6672302.34344                  22936841.3424
       298.9944
  21461767.3834  -19785334.18748 -15407904.93346                  21461764.1984
      2774.9074
  23035383.4224  -11223713.87147  -9174004.16945                  23035384.0024
      -221.6064
  22886312.0384  -12260624.37748  -9872273.27245                  22886312.4994
      -507.5984
  22479751.1034  -14050546.19847 -10941279.79345                  22479749.7914
      -745.5374
  24152790.6854   -7513652.04447  -7183079.68244                  24152790.2504
     -2937.5834
  20444485.0734  -25030002.38248 -19497393.52347                  20444482.4764
      1882.4614
  20952671.0724  -25262520.68648 -19664372.85447                  20952669.0284
     -1306.9924
  22613742.9624  -12829500.28447  -9982570.12346                  22613741.4224
      3625.5524
  24716625.8774    -427078.68246   -322534.60244                  24716623.7794
      3678.5064
 06  6 28  4 37 30.0000000  0 10G15G18G29G26G21G10G 5G 9G30G22
  22935179.1584   -8588057.26347  -6679109.49645                  22935178.7684
       283.6624
  21445961.8194  -19868391.57448 -15472624.94846                  21445959.0324
      2762.5154
  23036658.4574  -11217010.91947  -9168781.07945                  23036658.8844
      -224.9804
  22889217.8364  -12245352.40748  -9860373.04545                  22889218.2174
      -510.2694
  22484041.7154  -14028003.30847 -10923713.93545                  22484039.0004
      -756.9344
  24169580.2404   -7425427.72847  -7114333.60444                  24169578.9364
     -2943.6874
  20433788.9484  -25086211.64548 -19541192.94147                  20433786.4574
      1865.1614
  20960153.0274  -25223202.69148 -19633735.49547                  20960151.4284
     -1313.8774
  22593064.4264  -12938167.88248 -10067246.12246                  22593062.5214
      3619.1314
  24695631.3624    -537408.65146   -408505.97744                  24695629.1334
      3676.9434
 06  6 28  4 38  0.0000000  0 10G15G18G29G26G21G10G 5G 9G30G22
  22933601.5424   -8596348.15247  -6685569.90245                  22933601.3694
       269.0584
  21430225.0544  -19951089.20048 -15537064.63046                  21430222.1454
      2750.6844
  23037950.3604  -11210221.24747  -9163490.42245                  23037950.4864
      -227.5834
  22892136.8654  -12230013.18848  -9848420.40445                  22892136.6854
      -512.3584
  22488393.6214  -14005133.05947 -10905892.97745                  22488390.5354
      -767.6374
  24186400.6474   -7337032.29247  -7045454.12044                  24186400.1744
     -2949.2434
  20423188.5914  -25141914.51648 -19584597.76247                  20423186.7434
      1848.3944
  20967671.0024  -25183693.28148 -19602948.97147                  20967669.4514
     -1319.9764
  22572420.1664  -13046655.18648 -10151781.66246                  22572417.5604
      3613.3794
  24674643.5574    -647701.59646   -494448.53444                  24674641.3974
      3675.8164
 06  6 28  4 38 30.0000000  0 10G15G18G29G26G21G10G 5G 9G30G22
  22932107.6664   -8604199.21647  -6691687.65445                  22932107.4124
       254.3994
  21414556.8344  -20033427.95148 -15601224.67246                  21414553.6294
      2738.6284
  23039258.7734  -11203346.88347  -9158133.79045                  23039259.3414
      -230.5424
  22895067.6964  -12214608.99148  -9836417.11645                  22895068.1444
      -514.5954
  22492806.8294  -13981941.70347 -10887821.83045                  22492804.8874
      -778.2474
  24203253.2244   -7248471.33347  -6976445.69044                  24203253.0844
     -2954.7764
  20412685.1954  -25197112.54748 -19627609.21747                  20412683.1704
      1831.5334
  20975225.4104  -25143998.03648 -19572017.63947                  20975223.3644
     -1326.1774
  22551809.4514  -13154962.39847 -10236176.84546                  22551808.5864
      3607.2124
  24653662.0574    -757958.46446   -580362.94444                  24653659.2794
      3674.6244
 06  6 28  4 39  0.0000000  0 10G15G18G29G26G21G10G 5G 9G30G22
  22930698.6164   -8611602.35047  -6697456.31545                  22930698.1034
       239.6444
  21398958.4844  -20115395.47348 -15665095.45346                  21398955.9804
      2726.3824
  23040585.4094  -11196376.69047  -9152702.46345                  23040585.7054
      -233.5504
  22898013.9174  -12199129.04648  -9824354.82445                  22898014.2764
      -516.8804
  22497282.0324  -13958421.93547 -10869494.76945                  22497280.0124
      -789.0434
  24220138.0604   -7159737.70547  -6907302.71444                  24220138.3404
     -2960.3424
  20402279.5434  -25251794.34348 -19670218.38447                  20402277.1424
      1814.4684
  20982815.5774  -25104109.82148 -19540935.94147                  20982814.0124
     -1332.4464
  22531235.7744  -13263077.82447 -10320422.60946                  22531234.7154
      3600.9764
  24632689.3384    -868167.49146   -666240.10044                  24632687.1484
      3673.1594
 06  6 28  4 39 30.0000000  0 10G15G18G29G26G21G10G 5G 9G30G22
  22929374.1594   -8618563.20547  -6702880.36844                  22929374.2424
       224.5804
  21383430.7504  -20196993.46248 -15728678.27946                  21383428.1044
      2713.6724
  23041928.7794  -11189313.48946  -9147198.69245                  23041929.4384
      -237.1924
  22900973.3304  -12183576.73848  -9812236.15245                  22900973.3524
      -519.6834
  22501818.8864  -13934580.89447 -10850917.38345                  22501816.8494
      -800.1614
  24237055.1254   -7070837.82747  -6838030.16544                  24237055.9974
     -2966.1824
  20391971.4004  -25305962.50948 -19712427.33247                  20391969.2964
      1796.8904
  20990441.3014  -25064035.71648 -19509709.39847                  20990439.5634
     -1338.9804
  22510698.2294  -13371002.57347 -10404519.76946                  22510697.2294
      3594.1994
  24611726.4274    -978330.66346   -752081.51944                  24611723.6704
      3671.2454
 06  6 28  4 40  0.0000000  0 10G15G18G29G26G21G10G 5G 9G30G22
  22928134.9664   -8625076.60747  -6707955.75145                  22928134.7044
       209.6884
  21367975.5324  -20278212.39948 -15791965.74646                  21367972.3714
      2700.9724
  23043292.7934  -11182149.24447  -9141616.13345                  23043292.7894
      -240.5274
  22903947.7934  -12167943.81147  -9800054.65845                  22903948.3664
      -522.4614
  22506418.0854  -13910414.35347 -10832086.32945                  22506415.7084
      -810.9474
  24254004.3814   -6981767.00747  -6768624.46344                  24254005.5744
     -2971.7774
  20381763.4034  -25359608.46348 -19754229.36847                  20381761.4704
      1779.4584
  20998103.6234  -25023770.59048 -19478334.01646                  20998101.9144
     -1345.2734
  22490198.9154  -13478727.28547 -10488461.07446                  22490197.7194
      3587.4224
  24590773.4194   -1088438.67346   -837879.94544                  24590770.5204
      3669.3514
 06  6 28  4 40 30.0000000  0 10G15G18G29G26G21G10G 5G 9G30G22
  22926979.1424   -8631148.78047  -6712687.35144                  22926979.2244
       195.0684
  21352592.4844  -20359054.03647 -15854959.20746                  21352589.3704
      2688.3114
  23044674.5414  -11174886.75747  -9135957.05445                  23044675.2674
      -243.6674
  22906937.4164  -12152233.89848  -9787813.15345                  22906937.5994
      -525.0054
  22511077.0604  -13885929.88947 -10813007.53645                  22511075.3044
      -821.4404
  24270985.9594   -6892532.26347  -6699090.98144                  24270986.6844
     -2977.2464
  20371653.1774  -25412735.11948 -19795626.73847                  20371651.3914
      1762.1394
  21005800.3794  -24983321.85447 -19446815.55047                  21005798.7464
     -1351.3874
  22469737.1434  -13586253.59547 -10572247.76846                  22469735.8634
      3580.7814
  24569830.8544   -1198494.05746   -923637.36744                  24569828.2524
      3667.5984
 06  6 28  4 41  0.0000000  0 10G15G18G29G26G21G10G 5G 9G30G22
  22925908.3094   -8636776.78647  -6717072.80645                  22925908.2154
       180.3614
  21337281.8404  -20439511.42747 -15917653.25346                  21337277.9184
      2675.5814
  23046077.0534  -11167520.27847  -9130216.94945                  23046077.2614
      -247.1834
  22909943.0184  -12136441.49247  -9775507.39845                  22909943.0094
      -527.7734
  22515796.9174  -13861125.25547 -10793679.29345                  22515794.7884
      -832.0224
  24287998.3204   -6803131.35747  -6629428.05744                  24287999.0244
     -2982.7294
  20361643.6414  -25465336.26148 -19836614.63047                  20361641.7234
      1744.6144
  21013533.5604  -24942686.97647 -19415152.04646                  21013531.0964
     -1357.5004
  22449315.0694  -13693574.32847 -10655874.29846                  22449312.9874
      3573.9804
  24548899.4484   -1308489.95347  -1009348.43144                  24548897.3414
      3665.5574
 06  6 28  4 41 30.0000000  0 10G15G18G29G26G21G10G 5G 9G30G22
  22924921.1304   -8641963.89647  -6721114.73344                  22924920.3034
       165.8354
  21322044.4214  -20519583.16147 -15980046.79946                  21322041.4484
      2662.7884
  23047498.3254  -11160050.08046  -9124396.03645                  23047498.2154
      -250.5474
  22912963.7614  -12120566.94248  -9763137.63245                  22912963.9084
      -530.3084
  22520576.8034  -13836005.21847 -10774105.24545                  22520575.6864
      -842.4324
  24305041.8464   -6713567.77247  -6559638.36344                  24305042.8834
     -2987.9154
  20351734.1594  -25517411.75348 -19877192.91947                  20351731.6534
      1727.2614
  21021300.3464  -24901870.04447 -19383346.68346                  21021298.7714
     -1363.4524
  22428931.3034  -13800688.90548 -10739340.16446                  22428930.0244
      3567.1784
  24527978.2224   -1418425.96246  -1095012.81144                  24527976.0814
      3663.7654
 06  6 28  4 42  0.0000000  0 10G15G18G29G26G21G10G 5G 9G30G22
  22924016.4814   -8646716.94547  -6724818.43745                  22924016.7564
       151.2704
  21306880.1714  -20599272.01548 -16042141.99146                  21306876.6504
      2649.9074
  23048939.0994  -11152479.71847  -9118497.07145                  23048939.2214
      -254.0144
  22915999.3394  -12104614.37347  -9750707.08545                  22915999.5254
      -533.0764
  22525416.3454  -13810577.34047 -10754291.37145                  22525414.1064
      -852.7344
  24322114.8684   -6623849.10147  -6489727.81044                  24322115.8674
     -2993.1014
  20341923.6934  -25568965.16648 -19917364.39547                  20341921.9704
      1709.7314
  21029100.9134  -24860879.11648 -19351405.73346                  21029099.2104
     -1369.2194
  22408587.2514  -13907599.09648 -10822646.77746                  22408586.2874
      3560.2834
  24507069.5334   -1528304.63046  -1180632.54944                  24507067.7674
      3661.5924
 06  6 28  4 42 30.0000000  0 10G15G18G29G26G21G10G 5G 9G30G22
  22923195.1194   -8651035.67747  -6728183.66744                  22923195.1354
       136.5924
  21291789.4944  -20678573.76948 -16103935.54746                  21291786.6954
      2636.6504
  23050399.7024  -11144806.05647  -9112517.60845                  23050398.6004
      -257.6374
  22919050.4824  -12088580.83747  -9738213.44045                  22919050.9454
      -536.0214
  22530313.5254  -13784842.38347 -10734238.21045                  22530311.6714
      -863.1254
  24339217.2654   -6533975.69047  -6419696.66744                  24339217.9924
     -2998.5014
  20332213.3274  -25619993.15848 -19957126.45347                  20332211.8224
      1691.8944
  21036934.5064  -24819713.96247 -19319329.03846                  21036932.7224
     -1375.3084
  22388283.1354  -14014300.09148 -10905790.38346                  22388281.3004
      3552.9984
  24486172.4794   -1638121.96646  -1266204.41844                  24486169.3544
      3659.3024
 06  6 28  4 43  0.0000000  0 10G15G18G29G26G21G10G 5G 9G30G22
  22922456.9274   -8654911.19447  -6731203.58544                  22922457.4444
       121.9144
  21276775.0014  -20757474.75548 -16165416.81646                  21276771.8724
      2623.4034
  23051880.0724  -11137016.89346  -9106448.10545                  23051881.3024
      -261.5674
  22922119.1784  -12072454.32947  -9725647.33745                  22922119.4074
      -539.0824
  22535270.7024  -13758792.27347 -10713939.44645                  22535268.1114
      -873.4814
  24356350.6214   -6443939.31147  -6349538.54544                  24356350.8044
     -3003.7264
  20322605.2984  -25670483.27248 -19996469.38747                  20322603.3744
      1674.0284
  21044802.6744  -24778366.18347 -19287110.02346                  21044801.2544
     -1381.2114
  22368020.2274  -14120779.28648 -10988761.15946                  22368018.8744
      3545.6644
  24465288.0984   -1747864.50646  -1351718.05444                  24465286.3124
      3656.8704
 06  6 28  4 43 30.0000000  0 10G15G18G29G26G21G10G 5G 9G30G22
  22921801.4004   -8658354.91247  -6733887.00145                  22921802.0614
       107.5934
  21261835.5564  -20835981.99448 -16226591.27846                  21261832.5714
      2610.3914
  23053384.1784  -11129120.46047  -9100295.06245                  23053384.0454
      -265.0684
  22925203.8474  -12056243.49647  -9713015.52745                  22925204.6204
      -541.7634
  22540285.7364  -13732439.85547 -10693405.14645                  22540282.9104
      -883.3694
  24373512.1084   -6353751.70246  -6279262.61444                  24373512.9524
     -3008.5994
  20313098.0484  -25720443.71548 -20035399.59347                  20313096.2524
      1656.5534
  21052702.9764  -24736847.69647 -19254757.99646                  21052701.4064
     -1386.7874
  22347799.2254  -14227043.20748 -11071564.18046                  22347797.1334
      3538.4624
  24444418.0214   -1857540.04546  -1437179.47244                  24444415.2594
      3654.6244
 06  6 28  4 44  0.0000000  0 10G15G18G29G26G21G10G 5G 9G30G22
  22921227.4624   -8661371.45747  -6736237.58345                  22921227.9674
        93.0864
  21246970.8794  -20914096.02348 -16287459.32646                  21246967.2314
      2596.8654
  23054908.1454  -11121117.97547  -9094059.40045                  23054907.2914
      -268.8534
  22928304.2844  -12039950.27047  -9700319.52845                  22928304.8164
      -544.8494
  22545356.5994  -13705790.84747 -10672639.70045                  22545354.5224
      -893.4964
  24390702.2984   -6263418.12947  -6208872.90644                  24390703.7674
     -3013.8484
  20303691.4584  -25769875.74548 -20073918.05546                  20303689.2894
      1638.6384
  21060635.8054  -24695163.89847 -19222277.15946                  21060633.6074
     -1392.4904
  22327618.7314  -14333091.76847 -11154199.39646                  22327617.0244
      3531.0554
  24423559.1624   -1967149.00346  -1522589.02744                  24423557.3854
      3652.2514
 06  6 28  4 44 30.0000000  0 10G15G18G29G26G21G10G 5G 9G30G22
  22920735.9404   -8663956.40747  -6738251.84145                  22920735.9614
        78.7454
  21232182.8034  -20991807.88447 -16348014.00547                  21232179.5634
      2583.5604
  23056450.9754  -11113002.15347  -9087735.42345                  23056451.0114
      -272.5734
  22931422.1124  -12023567.11847  -9687553.45545                  22931422.5324
      -547.7884
  22550484.8424  -13678841.46747 -10651640.23645                  22550482.6674
      -903.4814
  24407921.8674   -6172934.63547  -6138366.39044                  24407922.4694
     -3018.7794
  20294387.1374  -25818771.59148 -20112018.69647                  20294385.0194
      1620.7674
  21068600.5874  -24653311.15247 -19189664.68746                  21068598.5484
     -1398.0224
  22307480.8534  -14438916.19847 -11236659.93946                  22307479.0404
      3523.5844
  24402715.7394   -2076682.87446  -1607940.04844                  24402714.1984
      3649.6634
 06  6 28  4 45  0.0000000  0 10G15G18G29G26G21G10G 5G 9G30G22
  22920326.2074   -8666114.86847  -6739933.77644                  22920325.8584
        65.0154
  21217471.3064  -21069117.99047 -16408255.62047                  21217468.0284
      2570.3124
  23058016.4144  -11104774.86247  -9081324.55145                  23058017.1934
      -275.9474
  22934556.0554  -12007096.48347  -9674719.20945                  22934556.8644
      -550.4104
  22555668.5964  -13651597.95447 -10630411.52645                  22555666.6404
      -912.8084
  24425166.8874   -6082307.00646  -6067747.61643                  24425167.6824
     -3023.1744
  20285183.9854  -25867133.24347 -20149703.08747                  20285181.8664
      1603.3154
  21076595.0004  -24611294.59847 -19156924.56046                  21076594.0654
     -1403.1884
  22287385.6294  -14544517.34647 -11318946.50646                  22287384.3584
      3516.4454
  24381886.4554   -2186142.73646  -1693233.44344                  24381883.7374
      3647.7544
 06  6 28  4 45 30.0000000  0 10G15G18G29G26G21G10G 5G 9G30G22
  22919995.4954   -8667847.56547  -6741283.96545                  22919996.0404
        50.5714
  21202836.4864  -21146022.96347 -16468181.55646                  21202833.4464
      2556.6314
  23059602.2384  -11096433.48147  -9074824.80044                  23059604.5704
      -280.0054
  22937707.3934  -11990536.14247  -9661815.06345                  22937708.3394
      -553.5694
  22560909.4124  -13624061.70447 -10608954.73645                  22560906.2434
      -922.7984
  24442440.7884   -5991536.28147  -5997017.26543                  24442442.1464
     -3028.1984
  20276083.4584  -25914958.06448 -20186969.18447                  20276080.8734
      1585.1514
  21084622.1284  -24569115.89347 -19124058.05746                  21084620.0434
     -1408.8334
  22267333.4264  -14649891.04347 -11401055.84546                  22267332.0914
      3508.6624
  24361071.6494   -2295525.24046  -1778466.50744                  24361069.1554
      3644.7124
 06  6 28  4 46  0.0000000  0 10G15G18G29G26G21G10G 5G 9G30G22
  22919746.8364   -8669155.77047  -6742303.33145                  22919746.5254
        36.4844
  21188279.9714  -21222519.78948 -16527789.44647                  21188276.3824
      2542.9594
  23061212.9974  -11087976.09347  -9068234.65745                  23061213.7844
      -284.0284
  22940876.2014  -11973884.27147  -9648839.61345                  22940877.0794
      -556.7484
  22566203.9344  -13596235.37547 -10587271.91945                  22566201.8384
      -932.4414
  24459741.0664   -5900624.33846  -5926176.92043                  24459741.4804
     -3032.8474
  20267085.3684  -25962244.01348 -20223815.38047                  20267082.6644
      1567.1294
  21092678.1664  -24526776.46447 -19091066.34446                  21092676.8854
     -1414.0534
  22247325.8854  -14755033.95847 -11482985.35246                  22247324.0474
      3500.7624
  24340271.9254   -2404827.09346  -1863636.79744                  24340269.6894
      3641.8264
 06  6 28  4 46 30.0000000  0 10G15G18G29G26G21G10G 5G 9G30G22
  22919577.8124   -8670042.88147  -6742994.61244                  22919578.3244
        22.0314
  21173800.7164  -21298607.45748 -16587078.52347                  21173797.7444
      2528.8824
  23062845.0214  -11079402.57247  -9061554.00445                  23062845.2284
      -288.2524
  22944062.8454  -11957141.35747  -9635793.22045                  22944063.0014
      -560.1224
  22571553.6394  -13568123.18247 -10565366.34544                  22571551.6354
      -942.3444
  24477067.0874   -5809574.91746  -5855229.43643                  24477067.9384
     -3037.6714
  20258189.7724  -26008991.16748 -20260241.72647                  20258187.5484
      1548.7504
  21100765.8584  -24484280.08947 -19057952.32946                  21100764.3444
     -1419.6634
  22227361.8154  -14859945.25247 -11564734.39746                  22227360.2204
      3492.5934
  24319488.5074   -2514047.90846  -1948743.88244                  24319485.7174
      3638.7404
 06  6 28  4 47  0.0000000  0 10G15G18G29G26G21G10G 5G 9G30G22
  22919492.0574   -8670494.66247  -6743346.66044                  22919492.1904
         7.8864
  21159402.9634  -21374266.92547 -16646033.93347                  21159400.6634
      2514.8394
  23064502.8134  -11070695.76247  -9054769.50645                  23064502.8194
      -292.3934
  22947269.3104  -11940290.18847  -9622662.44645                  22947269.6124
      -563.4424
  22576961.0534  -13539711.52647 -10543227.43145                  22576958.5534
      -951.9584
  24494422.2714   -5718373.88046  -5784163.77144                  24494423.8134
     -3042.4514
  20249399.8544  -26055182.16648 -20296234.70747                  20249397.4164
      1530.4884
  21108884.7664  -24441613.33247 -19024705.55046                  21108883.2554
     -1424.9764
  22207445.1744  -14964605.88147 -11646288.08146                  22207443.9834
      3484.5174
  24298722.4524   -2623168.94546  -2033773.23043                  24298720.9084
      3635.7964
 06  6 28  4 47 30.0000000  0 10G15G18G29G26G21G10G 5G 9G30G22
  22919485.7884   -8670524.59647  -6743370.00644                  22919486.0784
        -5.8844
  21145085.2544  -21449507.43848 -16704662.88547                  21145082.3094
      2501.1284
  23066182.7464  -11061865.58447  -9047888.87445                  23066182.5864
      -296.3724
  22950494.4804  -11923341.16147  -9609455.46945                  22950494.8794
      -566.5094
  22582421.5134  -13511015.04847 -10520866.56444                  22582419.0904
      -961.1724
  24511803.5234   -5627035.42346  -5712991.11643                  24511804.4464
     -3046.8654
  20240713.4654  -26100826.93148 -20331802.06247                  20240711.3234
      1512.4614
  21117033.9784  -24398789.61048 -18991336.46046                  21117032.3694
     -1429.9664
  22187575.1504  -15069024.89747 -11727653.51146                  22187574.1154
      3476.6754
  24277974.9234   -2732199.54846  -2118732.10643                  24277972.9744
      3632.8614
 06  6 28  4 48  0.0000000  0 10G15G18G29G26G21G10G 5G 9G30G22
  22919558.9434   -8670141.88747  -6743071.82245                  22919558.9964
       -19.4294
  21130846.0474  -21524333.98047 -16762969.26347                  21130843.2834
      2487.4174
  23067885.4434  -11052917.78847  -9040916.60645                  23067884.9284
      -300.0054
  22953737.0374  -11906300.47147  -9596177.01845                  22953737.3814
      -569.4734
  22587934.3174  -13482043.93947 -10498291.68445                  22587931.6344
      -970.0344
  24529208.8154   -5535569.10546  -5641718.78343                  24529209.5464
     -3050.8064
  20232130.3934  -26145931.65148 -20366948.59347                  20232128.4244
      1494.6444
  21125211.4204  -24355818.33048 -18957852.38446                  21125209.7174
     -1434.6834
  22167749.6064  -15173206.84247 -11808834.21746                  22167748.4904
      3468.8874
  24257242.5334   -2841144.51846  -2203624.30343                  24257241.6294
      3630.2204
 06  6 28  4 48 30.0000000  0 10G15G18G29G26G21G10G 5G 9G30G22
  22919711.0174   -8669346.93747  -6742452.41145                  22919710.4304
       -33.3594
  21116686.5024  -21598742.25148 -16820949.72147                  21116684.2274
      2473.2474
  23069611.0154  -11043849.58547  -9033850.51145                  23069610.9244
      -304.2974
  22956997.4744  -11889165.46647  -9582825.10545                  22956998.0104
      -572.7884
  22593499.7044  -13452799.07747 -10475503.51845                  22593496.9604
      -979.3754
  24546638.3194   -5443975.72247  -5570347.41643                  24546639.0944
     -3055.2984
  20223651.1084  -26190493.19548 -20401671.87247                  20223648.5524
      1476.2994
  21133416.2934  -24312700.75748 -18924254.31246                  21133414.5884
     -1439.7224
  22147970.5884  -15277147.04847 -11889826.55146                  22147969.3484
      3460.6404
  24236528.0204   -2949999.89246  -2288446.61744                  24236527.1174
      3627.0704
 06  6 28  4 49  0.0000000  0 10G15G18G29G26G21G10G 5G 9G30G22
  22919940.1144   -8668139.37247  -6741511.46744                  22919940.2184
       -46.8994
  21102607.6944  -21672727.23248 -16878600.32747                  21102605.1594
      2459.2584
  23071360.1674  -11034657.37647  -9026687.78645                  23071360.1924
      -308.3204
  22960277.3324  -11871932.54547  -9569396.87845                  22960277.0764
      -575.8894
  22599116.4064  -13423281.11847 -10452502.49845                  22599113.5704
      -988.3114
  24564092.5574   -5352255.10546  -5498876.96143                  24564093.1984
     -3059.2774
  20215274.8914  -26234508.13348 -20435969.22247                  20215272.7204
      1458.2374
  21141649.4074  -24269436.36048 -18890541.83446                  21141647.4554
     -1444.4044
  22128238.5694  -15380840.62548 -11970626.70446                  22128237.1764
      3452.4564
  24215831.8394   -3058761.20446  -2373195.69344                  24215830.5604
      3624.0234
 06  6 28  4 49 30.0000000  0 10G15G18G29G26G21G10G 5G 9G30G22
  22920248.2354   -8666523.26747  -6740252.19545                  22920247.5344
       -60.6694
  21088609.6984  -21746288.76248 -16935920.97647                  21088606.8144
      2444.8684
  23073132.2084  -11025341.60947  -9019428.75445                  23073133.1074
      -312.6614
  22963575.3264  -11854602.99047  -9555893.35145                  22963575.2814
      -579.3604
  22604784.6284  -13393495.04447 -10429292.59944                  22604782.7534
      -997.4904
  24581570.1994   -5260411.59846  -5427310.69843                  24581571.2114
     -3063.6674
  20207002.4974  -26277977.17848 -20469841.20047                  20207000.6124
      1439.7714
  21149909.5774  -24226029.53348 -18856718.37347                  21149907.3964
     -1449.2924
  22108553.5024  -15484287.53448 -12051234.65846                  22108552.0604
      3443.9894
  24195153.1104   -3167428.05847  -2457871.09144                  24195152.4774
      3620.4794
 06  6 28  4 50  0.0000000  0 10G15G18G29G26G21G10G 5G 9G30G22
  22920634.3944   -8664495.19647  -6738671.89145                  22920633.4794
       -74.5564
  21074693.2864  -21819419.02248 -16992905.56347                  21074690.1364
      2430.3274
  23074929.5814  -11015895.61447  -9012068.27345                  23074930.5724
      -317.2414
  22966892.7004  -11837170.09247  -9542309.28945                  22966892.6304
      -582.8564
  22610504.1534  -13363438.46947 -10405871.94545                  22610502.3614
     -1006.4314
  24599070.7624   -5168442.49047  -5355646.63144                  24599072.4474
     -3067.8564
  20198836.1984  -26320893.76048 -20503282.69047                  20198834.0754
      1421.1624
  21158197.0704  -24182477.33648 -18822781.63046                  21158195.6814
     -1454.2734
  22088916.4824  -15587479.09648 -12131643.63046                  22088914.4914
      3435.3614
  24174494.1574   -3275992.76146  -2542466.92844                  24174492.6334
      3617.0414
 06  6 28  4 50 30.0000000  0 10G15G18G29G26G21G10G 5G 9G30G22
  22921098.0954   -8662056.58647  -6736771.71145                  22921097.3594
       -88.2234
  21060860.0404  -21892114.69248 -17049551.52546                  21060857.0484
      2415.7474
  23076752.7404  -11006317.31047  -9004604.68345                  23076753.6804
      -321.7384
  22970229.7754  -11819632.28747  -9528643.51045                  22970230.5154
      -586.4554
  22616274.8764  -13333113.61647 -10382242.22845                  22616273.0114
     -1015.3714
  24616596.4964   -5076349.17946  -5283885.73243                  24616597.2414
     -3071.9044
  20190774.8214  -26363256.06047 -20536292.27247                  20190772.8164
      1402.6424
  21166512.3874  -24138781.14148 -18788732.69147                  21166510.4624
     -1459.1264
  22069328.9874  -15690412.53047 -12211851.47246                  22069327.3514
      3426.5334
  24153855.7114   -3384451.99747  -2626980.56844                  24153853.1834
      3613.3644
 06  6 28  4 51  0.0000000  0 10G15G18G29G26G21G10G 5G 9G30G22
  22921639.4914   -8659209.87547  -6734553.50345                  22921639.5594
      -101.7194
  21047109.1854  -21964373.76847 -17105857.27946                  21047106.8164
      2401.2944
  23078600.2314  -10996605.87047  -8997037.32645                  23078601.8104
      -326.0694
  22973587.3364  -11801988.84847  -9514895.39845                  22973587.8884
      -589.9614
  22622095.7064  -13302523.74047 -10358405.99645                  22622093.6044
     -1024.2244
  24634143.6884   -4984134.48646  -5212030.26044                  24634145.2454
     -3075.9374
  20182819.6704  -26405063.16948 -20568869.23147                  20182817.3624
      1384.2684
  21174854.5334  -24094943.71148 -18754573.70147                  21174852.8934
     -1463.7014
  22049790.7554  -15793085.14348 -12291856.07946                  22049789.3264
      3417.9834
  24133236.8644   -3492803.99647  -2711410.66044                  24133234.6744
      3609.8684
 06  6 28  4 51 30.0000000  0 10G15G18G29G26G21G10G 5G 9G30G22
  22922258.8204   -8655957.78647  -6732019.43545                  22922258.2274
      -114.9414
  21033442.2494  -22036194.78647 -17161821.67947                  21033439.1374
      2386.8654
  23080474.0634  -10986760.40747  -8989365.55645                  23080474.8654
      -330.3274
  22976965.6644  -11784239.50247  -9501064.76445                  22976965.3164
      -593.2674
  22627966.7324  -13271672.51547 -10334366.12645                  22627964.6064
     -1032.5494
  24651714.6604   -4891801.39746  -5140082.53443                  24651716.2204
     -3079.5514
  20174969.7804  -26446314.66848 -20601013.24647                  20174967.0414
      1365.8994
  21183222.6154  -24050968.13948 -18720307.06747                  21183220.7724
     -1467.9354
  22030302.3614  -15895495.21848 -12371656.10646                  22030301.1294
      3409.3944
  24112639.2764   -3601047.19447  -2795755.94944                  24112636.7054
      3606.4314
 06  6 28  4 52  0.0000000  0 10G15G18G29G26G21G10G 5G 9G30G22
  22922954.0904   -8652301.81647  -6729170.61844                  22922954.1834
      -128.4134
  21019858.8154  -22107574.67547 -17217442.36747                  21019856.0404
      2372.0514
  23082373.9734  -10976778.96047  -8981587.83745                  23082374.0124
      -334.8144
  22980362.9144  -11766382.17347  -9487149.98045                  22980363.6064
      -596.9924
  22633887.4594  -13240562.04747 -10310124.21545                  22633884.8484
     -1041.1234
  24669306.7534   -4799351.93846  -5068044.10343                  24669307.8854
     -3083.3844
  20167225.6034  -26487008.73948 -20632722.90247                  20167223.5654
      1347.2564
  21191617.1054  -24006855.92248 -18685933.96047                  21191615.3434
     -1472.5634
  22010865.3094  -15997639.21247 -12451248.81146                  22010864.0784
      3400.4694
  24092062.0014   -3709178.46047  -2880014.05144                  24092060.1214
      3602.5644
 06  6 28  4 52 30.0000000  0 10G15G18G29G26G21G10G 5G 9G30G22
  22923725.2034   -8648250.10047  -6726013.49345                  22923725.4234
      -141.5774
  21006358.9324  -22178516.92047 -17272722.01647                  21006356.6624
      2357.4464
  23084298.5124  -10966666.33647  -8973707.88845                  23084298.5044
      -339.2334
  22983781.0874  -11748422.08947  -9473155.13645                  22983780.9814
      -600.3224
  22639854.6224  -13209201.16547 -10285687.20845                  22639852.7594
     -1049.4874
  24686919.1704   -4706794.35946  -4995921.41243                  24686921.3224
     -3086.9484
  20159587.0104  -26527150.44448 -20664002.14247                  20159585.4504
      1328.8624
  21200035.9724  -23962615.46648 -18651460.91146                  21200034.3264
     -1476.8214
  21991478.0154  -16099520.83447 -12530637.05046                  21991477.1644
      3391.6464
  24071505.4304   -3817201.60447  -2964187.86644                  24071503.4704
      3599.0144
 06  6 28  4 53  0.0000000  0 10G15G18G29G26G21G10G 5G 9G30G22
  22924572.0264   -8643800.12747  -6722545.98445                  22924571.5304
      -155.1714
  20992944.0024  -22249014.25247 -17327654.97847                  20992941.4294
      2342.1244
  23086248.9884  -10956416.44047  -8965720.98645                  23086249.0964
      -344.3554
  22987219.4594  -11730353.49147  -9459075.73145                  22987219.7114
      -604.3554
  22645870.5664  -13177588.29047 -10261053.83345                  22645868.3934
     -1058.1644
  24704554.2714   -4614126.07346  -4923712.54243                  24704555.4784
     -3090.9234
  20152054.4904  -26566734.01548 -20694846.48047                  20152052.1504
      1309.8734
  21208479.3734  -23918244.31148 -18616886.03047                  21208477.9904
     -1481.4214
  21972141.8054  -16201132.64248 -12609815.03846                  21972140.8064
      3382.2754
  24050971.9194   -3925109.49147  -3048271.86145                  24050969.4114
      3594.7464
 06  6 28  4 53 30.0000000  0 10G15G18G29G26G21G10G 5G 9G30G22
  22925495.6304   -8638945.91347  -6718763.52744                  22925495.4954
      -168.5404
  20979615.0114  -22319056.74147 -17382233.51547                  20979612.6944
      2327.2174
  23088227.5634  -10946020.00547  -8957619.89545                  23088227.5624
      -349.0044
  22990680.0354  -11712167.33647  -9444904.73445                  22990680.2884
      -608.1204
  22651935.6854  -13145718.31547 -10236220.11045                  22651933.4264
     -1066.6314
  24722211.3664   -4521341.54647  -4851413.02543                  24722211.9714
     -3094.7224
  20144630.0994  -26605750.49047 -20725248.91647                  20144627.9334
      1291.1084
  21216948.8984  -23873736.65948 -18582204.79547                  21216947.0154
     -1485.8944
  21952859.1844  -16302463.89747 -12688774.43846                  21952857.9644
      3373.0524
  24030461.4354   -4032891.79147  -3132258.03845                  24030459.0194
      3590.7324
 06  6 28  4 54  0.0000000  0 10G15G18G29G26G21G10G 5G 9G30G22
  22926496.0034   -8633691.16847  -6714668.95844                  22926496.3464
      -181.4894
  20966373.6144  -22388643.35547 -17436456.82447                  20966370.8754
      2312.2274
  23090234.3004  -10935477.20347  -8949404.74945                  23090233.7954
      -353.5644
  22994162.5774  -11693864.07147  -9430642.47145                  22994163.1374
      -611.7634
  22658047.8394  -13113595.53447 -10211189.38545                  22658045.9254
     -1074.6484
  24739887.9404   -4428444.80346  -4779026.05043                  24739889.4174
     -3098.0864
  20137313.0544  -26644200.23548 -20755209.74747                  20137310.6974
      1272.4904
  21225443.3524  -23829096.25648 -18547420.11647                  21225441.9114
     -1489.9514
  21933629.4144  -16403513.75547 -12767514.57546                  21933628.4294
      3363.8914
  24009974.6614   -4140547.78447  -3216145.72745                  24009972.6484
      3586.6454
 06  6 28  4 54 30.0000000  0 10G15G18G29G26G21G10G 5G 9G30G22
  22927568.7014   -8628052.49747  -6710275.20644                  22927568.5304
      -194.3954
  20953215.8574  -22457786.21848 -17490334.37047                  20953213.4864
      2297.3144
  23092265.2374  -10924800.97447  -8941085.62045                  23092265.9064
      -358.2624
  22997665.2024  -11675457.16447  -9416299.41845                  22997666.1074
      -615.3524
  22664205.9414  -13081237.67847 -10185975.52045                  22664203.6394
     -1082.4904
  24757584.5934   -4335452.41146  -4706564.59243                  24757586.0404
     -3101.4114
  20130101.3334  -26682096.78048 -20784739.50746                  20130099.6004
      1253.9754
  21233960.7784  -23784339.20948 -18512544.53147                  21233959.1614
     -1493.8484
  21914451.7474  -16504293.54448 -12846044.26146                  21914450.2844
      3354.7754
  23989510.4874   -4248089.25747  -3299944.20244                  23989508.2354
      3582.7494
 06  6 28  4 55  0.0000000  0 10G15G18G29G26G21G10G 5G 9G30G22
  22928716.5044   -8622022.07547  -6705576.18844                  22928716.5384
      -207.5054
  20940145.2594  -22526473.03147 -17543856.53747                  20940142.7004
      2281.8364
  23094324.2784  -10913980.19447  -8932653.83345                  23094324.4824
      -363.2184
  23001190.7014  -11656935.52247  -9401866.98545                  23001190.7114
      -619.3754
  22670410.0394  -13048637.73148 -10160573.00945                  22670407.7364
     -1090.6404
  24775300.0064   -4242357.10046  -4634022.91543                  24775301.1454
     -3104.8444
  20122997.5654  -26719429.17148 -20813829.69047                  20122994.8574
      1235.0544
  21242501.2574  -23739458.33148 -18477572.45547                  21242499.6964
     -1498.0614
  21895327.6804  -16604791.25647 -12924354.13246                  21895326.3144
      3345.1024
  23969070.1214   -4355503.90647  -3383643.84744                  23969067.5544
      3578.3304
 06  6 28  4 55 30.0000000  0 10G15G18G29G26G21G10G 5G 9G30G22
  22929938.6134   -8615597.72547  -6700570.25144                  22929938.8034
      -220.4644
  20927162.7004  -22594697.15748 -17597018.18547                  20927160.1214
      2266.6214
  23096411.5394  -10903009.05847  -8924104.89245                  23096412.2434
      -368.0764
  23004737.2264  -11638293.59747  -9387340.82045                  23004737.9314
      -623.2084
  22676659.3844  -13015794.11547 -10134980.59945                  22676656.9114
     -1098.6184
  24793035.1434   -4149156.81146  -4561399.42243                  24793036.9744
     -3108.0914
  20116001.8804  -26756192.10248 -20842476.11747                  20115999.9154
      1216.1284
  21251065.6824  -23694451.73448 -18442502.41347                  21251064.1904
     -1502.1044
  21876258.9714  -16704999.58448 -13002438.51946                  21876257.2824
      3335.6254
  23948655.1624   -4462785.14947  -3467239.51745                  23948653.3914
      3574.0684
 06  6 28  4 56  0.0000000  0  9G15G18G29G26G21G 5G 9G30G22
  22931235.3394   -8608784.69947  -6695261.41744                  22931235.6154
      -233.5204
  20914267.8654  -22662459.25547 -17649819.79247                  20914264.9324
      2251.0554
  23098528.0114  -10891889.44747  -8915440.25745                  23098527.6214
      -373.0574
  23008307.5634  -11619533.60947  -9372722.66245                  23008307.9484
      -627.2274
  22682954.2034  -12982713.06847 -10109203.17945                  22682952.2324
     -1106.5434
  20109113.8594  -26792387.84447 -20870680.59247                  20109111.7394
      1197.1834
  21259653.0604  -23649324.33948 -18407338.25846                  21259651.6414
     -1506.1474
  21857244.9224  -16804919.11848 -13080297.86646                  21857243.2504
      3325.8454
  23928265.1114   -4569933.58047  -3550731.70245                  23928262.7244
      3569.5174
 06  6 28  4 56 30.0000000  0  9G15G18G29G26G21G 5G 9G30G22
  22932603.5284   -8601593.97847  -6689658.31444                  22932603.6144
      -246.0844
  20901459.8914  -22729765.65848 -17702266.34747                  20901456.7514
      2235.8544
  23100671.4084  -10880628.44847  -8906665.46745                  23100671.4284
      -377.8524
  23011898.3274  -11600662.94147  -9358018.25045                  23011899.1134
      -630.9964
  22689293.0734  -12949405.76647 -10083249.51845                  22689290.5984
     -1114.1214
  20102332.4884  -26828023.88848 -20898448.94046                  20102330.4034
      1178.4864
  21268261.2144  -23604086.81948 -18372088.27446                  21268259.9024
     -1509.7754
  21838284.6094  -16904555.73048 -13157936.77646                  21838282.8594
      3316.3574
  23907899.4734   -4676955.40847  -3634125.23345                  23907897.3944
      3565.2644
 06  6 28  4 57  0.0000000  0  9G15G18G29G26G21G 5G 9G30G22
  22934045.0494   -8594021.92847  -6683758.02844                  22934044.1734
      -258.6674
  20888740.2554  -22796608.42948 -17754351.59947                  20888737.1964
      2220.4154
  23102842.2004  -10869218.75047  -8897774.80745                  23102842.5534
      -382.6814
  23015512.0704  -11581674.67047  -9343222.18445                  23015512.0584
      -634.8054
  22695674.2204  -12915869.24547 -10057117.19545                  22695672.2484
     -1121.5674
  20095658.5814  -26863093.49448 -20925775.90747                  20095656.6414
      1159.6444
  21276891.6004  -23558735.46248 -18336749.59846                  21276890.3894
     -1513.4814
  21819379.8864  -17003900.87248 -13235348.53346                  21819378.5534
      3306.6894
  23887559.1754   -4783842.06847  -3717413.40045                  23887556.6754
      3560.6844
 06  6 28  4 57 30.0000000  0  9G15G18G29G26G21G 5G 9G30G22
  22935558.2904   -8586068.42147  -6677560.51945                  22935558.2554
      -271.4654
  20876109.9854  -22862982.65748 -17806071.76647                  20876106.4824
      2204.5754
  23105041.8194  -10857656.80647  -8888765.48645                  23105042.4334
      -387.9304
  23019150.3564  -11562565.20547  -9328331.73145                  23019148.7934
      -639.0584
  22702099.4564  -12882104.27547 -10030806.86445                  22702097.4384
     -1129.2824
  20089093.7514  -26897593.41748 -20952658.96047                  20089092.4004
      1140.3864
  21285543.1384  -23513269.84748 -18301321.89946                  21285541.5094
     -1517.4174
  21800531.2894  -17102949.80148 -13312529.47746                  21800530.2994
      3296.6024
  23867246.2634   -4890589.06347  -3800592.80744                  23867243.4524
      3555.7964
 06  6 28  4 58  0.0000000  0  9G15G18G29G26G21G 5G 9G30G22
  22937144.1484   -8577732.67547  -6671065.16345                  22937144.6554
      -284.2534
  20863569.3814  -22928883.16848 -17857422.80747                  20863566.0784
      2188.6874
  23107271.8484  -10845938.13747  -8879634.06145                  23107272.5704
      -393.3254
  23022809.1824  -11543330.49547  -9313343.68245                  23022809.1974
      -643.3114
  22708568.1744  -12848110.74147 -10004318.45945                  22708565.9374
     -1136.9874
  20082637.9604  -26931519.79648 -20979095.09747                  20082636.1484
      1121.2554
  21294216.8734  -23467689.23748 -18265804.58846                  21294215.9734
     -1521.3434
  21781740.6384  -17201696.70348 -13389475.08546                  21781739.4824
      3286.3824
  23846960.3564   -4997190.55447  -3883658.79244                  23846957.8014
      3550.9284
 06  6 28  4 58 30.0000000  0  9G15G18G29G26G21G 5G 9G30G22
  22938802.4284   -8569016.40547  -6664273.30944                  22938802.9674
      -297.0174
  20851119.6904  -22994307.06148 -17908402.44747                  20851116.5184
      2172.7294
  23109532.5114  -10834061.09447  -8870379.22445                  23109533.3714
      -398.5944
  23026491.6974  -11523968.92847  -9298256.72345                  23026493.2794
      -647.5934
  22715080.5694  -12813890.82247  -9977653.60645                  22715078.4234
     -1144.4584
  20076291.4614  -26964871.35848 -21005083.33447                  20076289.5614
      1102.0024
  21302912.2354  -23421995.32348 -18230199.00246                  21302911.2674
     -1525.1274
  21763007.7644  -17300139.00148 -13466183.34446                  21763005.9614
      3276.1824
  23826703.4454   -5103643.85147  -3966609.31544                  23826700.4024
      3545.8104
 06  6 28  4 59  0.0000000  0  9G15G18G29G26G21G 5G 9G30G22
  22940534.7774   -8559915.72147  -6657181.90144                  22940535.6544
      -309.7464
  20838762.2464  -23059245.61748 -17959003.90647                  20838759.3204
      2156.4844
  23111824.1404  -10822017.78847  -8860994.86745                  23111824.6594
      -404.2924
  23030202.8064  -11504473.39047  -9283065.38745                  23030203.2294
      -652.1784
  22721635.6554  -12779441.30547  -9950809.87145                  22721634.3084
     -1152.1784
  20070055.3124  -26997640.94448 -21030618.06147                  20070053.6854
      1082.5444
  21311629.7154  -23376184.19848 -18194502.06646                  21311628.7504
     -1528.9454
  21744334.7714  -17398266.62748 -13542646.40946                  21744333.4924
      3265.6254
  23806475.3434   -5209940.13647  -4049437.48744                  23806472.1434
      3540.6304
